Time,TemperatureF,DewpointF,PressureIn,WindDirection,WindDirectionDegrees,WindSpeedMPH,WindSpeedGustMPH,Humidity,HourlyPrecipIn,Conditions,Clouds,dailyrainin,SolarRadiationWatts/m^2,SoftwareType,DateUTC
2013-05-11 00:00:00,63.3,57.4,30.17,NW,309,0.0,0.0,81,0.00,,---,0.00,0.00,VWS V14.01,2013-05-11 07:00:00,
2013-05-11 00:01:00,63.3,57.4,30.17,NW,309,0.0,0.0,81,0.00,,---,0.00,0.00,VWS V14.01,2013-05-11 07:01:00,
2013-05-11 00:03:00,63.4,57.8,30.17,NW,309,0.0,0.0,82,0.00,,---,0.00,0.00,VWS V14.01,2013-05-11 07:03:00,
2013-05-11 00:04:00,63.4,58.2,30.16,NW,309,0.0,0.0,83,0.00,,---,0.00,0.00,VWS V14.01,2013-05-11 07:04:00,
2013-05-11 00:05:00,63.3,58.1,30.17,NW,309,0.0,0.0,83,0.00,,---,0.00,0.00,VWS V14.01,2013-05-11 07:05:00,
2013-05-11 00:06:00,63.3,58.1,30.17,NW,309,0.0,0.0,83,0.00,,---,0.00,0.00,VWS V14.01,2013-05-11 07:06:00,
2013-05-11 00:09:00,63.3,58.1,30.16,NW,309,0.0,0.0,83,0.00,,---,0.00,0.00,VWS V14.01,2013-05-11 07:09:00,
2013-05-11 00:10:00,63.3,57.7,30.16,NW,309,0.0,0.0,82,0.00,,---,0.00,0.00,VWS V14.01,2013-05-11 07:10:00,
2013-05-11 00:12:00,63.2,57.3,30.16,NW,309,0.0,0.0,81,0.00,,---,0.00,0.00,VWS V14.01,2013-05-11 07:12:00,
2013-05-11 00:14:00,63.1,56.8,30.16,NW,309,0.0,0.0,80,0.00,,---,0.00,0.00,VWS V14.01,2013-05-11 07:14:00,
2013-05-11 00:15:00,63.1,56.8,30.16,NW,309,0.0,0.0,80,0.00,,---,0.00,0.00,VWS V14.01,2013-05-11 07:15:00,
2013-05-11 00:16:00,63.1,56.8,30.16,NW,309,0.0,0.0,80,0.00,,---,0.00,0.00,VWS V14.01,2013-05-11 07:16:00,
2013-05-11 00:17:00,63.1,56.8,30.17,NW,309,0.0,0.0,80,0.00,,---,0.00,0.00,VWS V14.01,2013-05-11 07:17:00,
2013-05-11 00:19:00,63.1,57.5,30.17,NW,309,0.0,0.0,82,0.00,,---,0.00,0.00,VWS V14.01,2013-05-11 07:19:00,
2013-05-11 00:20:00,62.9,57.3,30.17,NNW,344,0.0,1.0,82,0.00,,---,0.00,0.00,VWS V14.01,2013-05-11 07:20:00,
2013-05-11 00:21:00,62.8,57.2,30.17,NE,49,0.0,1.0,82,0.00,,---,0.00,0.00,VWS V14.01,2013-05-11 07:21:00,
2013-05-11 00:23:00,62.5,57.3,30.17,NE,50,0.0,1.0,83,0.00,,---,0.00,0.00,VWS V14.01,2013-05-11 07:23:00,
2013-05-11 00:24:00,62.4,57.2,30.17,NE,50,0.0,1.0,83,0.00,,---,0.00,0.00,VWS V14.01,2013-05-11 07:24:00,
2013-05-11 00:25:00,62.3,57.1,30.17,NE,50,0.0,1.0,83,0.00,,---,0.00,0.00,VWS V14.01,2013-05-11 07:25:00,
2013-05-11 00:26:00,62.2,57.3,30.17,NE,50,0.0,1.0,84,0.00,,---,0.00,0.00,VWS V14.01,2013-05-11 07:26:00,
2013-05-11 00:28:00,62.1,57.2,30.17,NE,50,0.0,1.0,84,0.00,,---,0.00,0.00,VWS V14.01,2013-05-11 07:28:00,
2013-05-11 00:29:00,62.0,57.1,30.17,NE,50,0.0,1.0,84,0.00,,---,0.00,0.00,VWS V14.01,2013-05-11 07:29:00,
2013-05-11 00:31:00,62.0,57.1,30.17,NE,50,0.0,0.0,84,0.00,,---,0.00,0.00,VWS V14.01,2013-05-11 07:31:00,
2013-05-11 00:33:00,61.9,57.0,30.17,NE,50,0.0,0.0,84,0.00,,---,0.00,0.00,VWS V14.01,2013-05-11 07:33:00,
2013-05-11 00:35:00,61.8,56.9,30.17,NE,50,0.0,0.0,84,0.00,,---,0.00,0.00,VWS V14.01,2013-05-11 07:35:00,
2013-05-11 00:36:00,61.8,56.9,30.17,NE,50,0.0,0.0,84,0.00,,---,0.00,0.00,VWS V14.01,2013-05-11 07:36:00,
2013-05-11 00:38:00,61.8,57.2,30.17,NE,50,0.0,0.0,85,0.00,,---,0.00,0.00,VWS V14.01,2013-05-11 07:38:00,
2013-05-11 00:41:00,61.8,57.2,30.17,NE,50,0.0,0.0,85,0.00,,---,0.00,0.00,VWS V14.01,2013-05-11 07:41:00,
2013-05-11 00:43:00,61.8,57.6,30.17,NE,50,0.0,0.0,86,0.00,,---,0.00,0.00,VWS V14.01,2013-05-11 07:43:00,
2013-05-11 00:46:00,61.7,57.5,30.17,NE,50,0.0,0.0,86,0.00,,---,0.00,0.00,VWS V14.01,2013-05-11 07:46:00,
2013-05-11 00:47:00,61.7,57.5,30.17,NE,50,0.0,0.0,86,0.00,,---,0.00,0.00,VWS V14.01,2013-05-11 07:47:00,
2013-05-11 00:49:00,61.6,57.4,30.17,NE,50,0.0,1.0,86,0.00,,---,0.00,0.00,VWS V14.01,2013-05-11 07:49:00,
2013-05-11 00:51:00,61.5,57.3,30.17,NE,50,0.0,1.0,86,0.00,,---,0.00,0.00,VWS V14.01,2013-05-11 07:51:00,
2013-05-11 00:52:00,61.5,57.3,30.17,NE,50,0.0,1.0,86,0.00,,---,0.00,0.00,VWS V14.01,2013-05-11 07:52:00,
2013-05-11 00:54:00,61.5,57.3,30.17,NE,50,0.0,1.0,86,0.00,,---,0.00,0.00,VWS V14.01,2013-05-11 07:54:00,
2013-05-11 00:57:00,61.5,57.6,30.17,NE,50,0.0,1.0,87,0.00,,---,0.00,0.00,VWS V14.01,2013-05-11 07:57:00,
2013-05-11 00:58:00,61.4,57.5,30.17,NE,50,0.0,1.0,87,0.00,,---,0.00,0.00,VWS V14.01,2013-05-11 07:58:00,
2013-05-11 00:59:00,61.4,57.5,30.17,NE,50,0.0,1.0,87,0.00,,---,0.00,0.00,VWS V14.01,2013-05-11 07:59:00,
2013-05-11 01:02:00,61.4,57.5,30.17,NE,50,0.0,0.0,87,0.00,,---,0.00,0.00,VWS V14.01,2013-05-11 08:02:00,
2013-05-11 01:04:00,61.3,57.1,30.17,NE,50,0.0,0.0,86,0.00,,---,0.00,0.00,VWS V14.01,2013-05-11 08:04:00,
2013-05-11 01:07:00,61.4,57.2,30.17,NE,50,0.0,0.0,86,0.00,,---,0.00,0.00,VWS V14.01,2013-05-11 08:07:00,
2013-05-11 01:08:00,61.4,57.2,30.17,NE,50,0.0,0.0,86,0.00,,---,0.00,0.00,VWS V14.01,2013-05-11 08:08:00,
2013-05-11 01:09:00,61.4,57.2,30.17,NE,50,0.0,0.0,86,0.00,,---,0.00,0.00,VWS V14.01,2013-05-11 08:09:00,
2013-05-11 01:10:00,61.4,57.2,30.17,NE,50,0.0,0.0,86,0.00,,---,0.00,0.00,VWS V14.01,2013-05-11 08:10:00,
2013-05-11 01:12:00,61.5,57.3,30.17,NE,50,0.0,0.0,86,0.00,,---,0.00,0.00,VWS V14.01,2013-05-11 08:12:00,
2013-05-11 01:13:00,61.5,57.3,30.17,NE,50,0.0,0.0,86,0.00,,---,0.00,0.00,VWS V14.01,2013-05-11 08:13:00,
2013-05-11 01:14:00,61.5,57.3,30.17,NE,50,0.0,0.0,86,0.00,,---,0.00,0.00,VWS V14.01,2013-05-11 08:14:00,
2013-05-11 01:15:00,61.6,57.7,30.17,NE,50,0.0,0.0,87,0.00,,---,0.00,0.00,VWS V14.01,2013-05-11 08:15:00,
2013-05-11 01:17:00,61.6,57.7,30.17,NE,50,0.0,0.0,87,0.00,,---,0.00,0.00,VWS V14.01,2013-05-11 08:17:00,
2013-05-11 01:18:00,61.6,57.7,30.17,NE,50,0.0,0.0,87,0.00,,---,0.00,0.00,VWS V14.01,2013-05-11 08:18:00,
2013-05-11 01:19:00,61.5,57.6,30.17,NE,50,0.0,0.0,87,0.00,,---,0.00,0.00,VWS V14.01,2013-05-11 08:19:00,
2013-05-11 01:21:00,61.5,57.9,30.17,NE,50,0.0,0.0,88,0.00,,---,0.00,0.00,VWS V14.01,2013-05-11 08:21:00,
2013-05-11 01:22:00,61.4,57.8,30.17,NE,50,0.0,0.0,88,0.00,,---,0.00,0.00,VWS V14.01,2013-05-11 08:22:00,
2013-05-11 01:23:00,61.4,57.8,30.17,NE,50,0.0,0.0,88,0.00,,---,0.00,0.00,VWS V14.01,2013-05-11 08:23:00,
2013-05-11 01:24:00,61.3,57.7,30.17,NE,50,0.0,0.0,88,0.00,,---,0.00,0.00,VWS V14.01,2013-05-11 08:24:00,
2013-05-11 01:26:00,61.2,57.3,30.17,NE,50,0.0,0.0,87,0.00,,---,0.00,0.00,VWS V14.01,2013-05-11 08:26:00,
2013-05-11 01:28:00,61.1,57.2,30.17,NE,50,0.0,0.0,87,0.00,,---,0.00,0.00,VWS V14.01,2013-05-11 08:28:00,
2013-05-11 01:29:00,61.0,57.1,30.17,NE,50,0.0,0.0,87,0.00,,---,0.00,0.00,VWS V14.01,2013-05-11 08:29:00,
2013-05-11 01:31:00,60.9,57.0,30.16,NE,50,0.0,0.0,87,0.00,,---,0.00,0.00,VWS V14.01,2013-05-11 08:31:00,
2013-05-11 01:33:00,60.8,57.2,30.16,NE,50,0.0,0.0,88,0.00,,---,0.00,0.00,VWS V14.01,2013-05-11 08:33:00,
2013-05-11 01:34:00,60.8,57.2,30.16,NE,50,0.0,0.0,88,0.00,,---,0.00,0.00,VWS V14.01,2013-05-11 08:34:00,
2013-05-11 01:35:00,60.8,57.2,30.16,NE,50,0.0,0.0,88,0.00,,---,0.00,0.00,VWS V14.01,2013-05-11 08:35:00,
2013-05-11 01:37:00,60.8,57.2,30.16,NE,50,0.0,0.0,88,0.00,,---,0.00,0.00,VWS V14.01,2013-05-11 08:37:00,
2013-05-11 01:39:00,60.8,57.2,30.16,NE,50,0.0,0.0,88,0.00,,---,0.00,0.00,VWS V14.01,2013-05-11 08:39:00,
2013-05-11 01:40:00,60.7,57.1,30.16,NE,50,0.0,0.0,88,0.00,,---,0.00,0.00,VWS V14.01,2013-05-11 08:40:00,
2013-05-11 01:42:00,60.7,57.1,30.16,NE,50,0.0,0.0,88,0.00,,---,0.00,0.00,VWS V14.01,2013-05-11 08:42:00,
2013-05-11 01:44:00,60.7,57.1,30.16,NE,50,0.0,0.0,88,0.00,,---,0.00,0.00,VWS V14.01,2013-05-11 08:44:00,
2013-05-11 01:45:00,60.6,57.0,30.16,NE,50,0.0,0.0,88,0.00,,---,0.00,0.00,VWS V14.01,2013-05-11 08:45:00,
2013-05-11 01:47:00,60.5,56.9,30.16,NE,50,0.0,0.0,88,0.00,,---,0.00,0.00,VWS V14.01,2013-05-11 08:47:00,
2013-05-11 01:49:00,60.5,56.9,30.16,NE,50,0.0,0.0,88,0.00,,---,0.00,0.00,VWS V14.01,2013-05-11 08:49:00,
2013-05-11 01:50:00,60.5,56.9,30.15,NE,50,0.0,0.0,88,0.00,,---,0.00,0.00,VWS V14.01,2013-05-11 08:50:00,
2013-05-11 01:53:00,60.5,57.2,30.15,NE,49,0.0,0.0,89,0.00,,---,0.00,0.00,VWS V14.01,2013-05-11 08:53:00,
2013-05-11 01:54:00,60.5,56.9,30.15,NE,49,0.0,0.0,88,0.00,,---,0.00,0.00,VWS V14.01,2013-05-11 08:54:00,
2013-05-11 01:55:00,60.5,56.9,30.15,NE,49,0.0,0.0,88,0.00,,---,0.00,0.00,VWS V14.01,2013-05-11 08:55:00,
2013-05-11 01:56:00,60.5,57.2,30.15,NE,49,0.0,0.0,89,0.00,,---,0.00,0.00,VWS V14.01,2013-05-11 08:56:00,
2013-05-11 01:58:00,60.5,56.9,30.15,NE,49,0.0,0.0,88,0.00,,---,0.00,0.00,VWS V14.01,2013-05-11 08:58:00,
2013-05-11 02:00:00,60.5,57.2,30.15,NE,49,0.0,0.0,89,0.00,,---,0.00,0.00,VWS V14.01,2013-05-11 09:00:00,
2013-05-11 02:01:00,60.5,57.2,30.15,NE,49,0.0,0.0,89,0.00,,---,0.00,0.00,VWS V14.01,2013-05-11 09:01:00,
2013-05-11 02:03:00,60.5,57.2,30.15,NE,49,0.0,0.0,89,0.00,,---,0.00,0.00,VWS V14.01,2013-05-11 09:03:00,
2013-05-11 02:05:00,60.5,56.9,30.15,NE,49,0.0,0.0,88,0.00,,---,0.00,0.00,VWS V14.01,2013-05-11 09:05:00,
2013-05-11 02:06:00,60.5,56.9,30.15,NE,49,0.0,0.0,88,0.00,,---,0.00,0.00,VWS V14.01,2013-05-11 09:06:00,
2013-05-11 02:08:00,60.5,56.9,30.15,NE,49,0.0,0.0,88,0.00,,---,0.00,0.00,VWS V14.01,2013-05-11 09:08:00,
2013-05-11 02:10:00,60.4,56.5,30.15,NE,49,0.0,0.0,87,0.00,,---,0.00,0.00,VWS V14.01,2013-05-11 09:10:00,
2013-05-11 02:11:00,60.4,56.5,30.15,NE,49,0.0,0.0,87,0.00,,---,0.00,0.00,VWS V14.01,2013-05-11 09:11:00,
2013-05-11 02:13:00,60.4,56.8,30.15,NE,49,0.0,0.0,88,0.00,,---,0.00,0.00,VWS V14.01,2013-05-11 09:13:00,
2013-05-11 02:15:00,60.4,56.8,30.15,NE,49,0.0,0.0,88,0.00,,---,0.00,0.00,VWS V14.01,2013-05-11 09:15:00,
2013-05-11 02:16:00,60.4,56.8,30.15,NE,49,0.0,0.0,88,0.00,,---,0.00,0.00,VWS V14.01,2013-05-11 09:16:00,
2013-05-11 02:18:00,60.4,56.8,30.15,NE,49,0.0,0.0,88,0.00,,---,0.00,0.00,VWS V14.01,2013-05-11 09:18:00,
2013-05-11 02:20:00,60.4,56.8,30.15,NE,49,0.0,0.0,88,0.00,,---,0.00,0.00,VWS V14.01,2013-05-11 09:20:00,
2013-05-11 02:21:00,60.4,56.8,30.15,NE,49,0.0,0.0,88,0.00,,---,0.00,0.00,VWS V14.01,2013-05-11 09:21:00,
2013-05-11 02:23:00,60.3,56.7,30.15,NE,49,0.0,0.0,88,0.00,,---,0.00,0.00,VWS V14.01,2013-05-11 09:23:00,
2013-05-11 02:25:00,60.3,57.0,30.15,NE,49,0.0,0.0,89,0.00,,---,0.00,0.00,VWS V14.01,2013-05-11 09:25:00,
2013-05-11 02:26:00,60.2,57.0,30.15,NE,49,0.0,0.0,89,0.00,,---,0.00,0.00,VWS V14.01,2013-05-11 09:26:00,
2013-05-11 02:28:00,60.2,57.0,30.15,NE,49,0.0,0.0,89,0.00,,---,0.00,0.00,VWS V14.01,2013-05-11 09:28:00,
2013-05-11 02:30:00,60.2,57.0,30.15,NE,49,0.0,0.0,89,0.00,,---,0.00,0.00,VWS V14.01,2013-05-11 09:30:00,
2013-05-11 02:31:00,60.2,57.0,30.15,NE,49,0.0,0.0,89,0.00,,---,0.00,0.00,VWS V14.01,2013-05-11 09:31:00,
2013-05-11 02:32:00,60.2,57.0,30.15,NE,49,0.0,0.0,89,0.00,,---,0.00,0.00,VWS V14.01,2013-05-11 09:32:00,
2013-05-11 02:34:00,60.2,57.0,30.15,NE,49,0.0,0.0,89,0.00,,---,0.00,0.00,VWS V14.01,2013-05-11 09:34:00,
2013-05-11 02:36:00,60.3,56.7,30.14,NE,49,0.0,0.0,88,0.00,,---,0.00,0.00,VWS V14.01,2013-05-11 09:36:00,
2013-05-11 02:37:00,60.3,56.7,30.14,NE,50,0.0,1.0,88,0.00,,---,0.00,0.00,VWS V14.01,2013-05-11 09:37:00,
2013-05-11 02:39:00,60.4,56.5,30.14,NE,50,0.0,1.0,87,0.00,,---,0.00,0.00,VWS V14.01,2013-05-11 09:39:00,
2013-05-11 02:41:00,60.4,56.5,30.14,NE,50,0.0,1.0,87,0.00,,---,0.00,0.00,VWS V14.01,2013-05-11 09:41:00,
2013-05-11 02:42:00,60.4,56.8,30.14,NE,50,0.0,1.0,88,0.00,,---,0.00,0.00,VWS V14.01,2013-05-11 09:42:00,
2013-05-11 02:44:00,60.4,56.8,30.14,NE,50,0.0,1.0,88,0.00,,---,0.00,0.00,VWS V14.01,2013-05-11 09:44:00,
2013-05-11 02:46:00,60.3,56.7,30.14,NE,50,0.0,0.0,88,0.00,,---,0.00,0.00,VWS V14.01,2013-05-11 09:46:00,
2013-05-11 02:47:00,60.3,56.7,30.14,NE,50,0.0,0.0,88,0.00,,---,0.00,0.00,VWS V14.01,2013-05-11 09:47:00,
2013-05-11 02:49:00,60.2,57.0,30.14,NE,50,0.0,0.0,89,0.00,,---,0.00,0.00,VWS V14.01,2013-05-11 09:49:00,
2013-05-11 02:51:00,60.1,56.8,30.14,NE,50,0.0,0.0,89,0.00,,---,0.00,0.00,VWS V14.01,2013-05-11 09:51:00,
2013-05-11 02:52:00,60.1,56.8,30.14,NE,50,0.0,0.0,89,0.00,,---,0.00,0.00,VWS V14.01,2013-05-11 09:52:00,
2013-05-11 02:54:00,60.1,56.5,30.14,NE,50,0.0,0.0,88,0.00,,---,0.00,0.00,VWS V14.01,2013-05-11 09:54:00,
2013-05-11 02:56:00,60.0,56.8,30.14,NE,50,0.0,0.0,89,0.00,,---,0.00,0.00,VWS V14.01,2013-05-11 09:56:00,
2013-05-11 02:57:00,60.0,56.8,30.14,NE,50,0.0,0.0,89,0.00,,---,0.00,0.00,VWS V14.01,2013-05-11 09:57:00,
2013-05-11 02:59:00,60.0,56.4,30.14,NE,50,0.0,0.0,88,0.00,,---,0.00,0.00,VWS V14.01,2013-05-11 09:59:00,
2013-05-11 03:01:00,60.0,56.4,30.14,NE,50,0.0,0.0,88,0.00,,---,0.00,0.00,VWS V14.01,2013-05-11 10:01:00,
2013-05-11 03:02:00,60.0,56.4,30.14,NE,50,0.0,0.0,88,0.00,,---,0.00,0.00,VWS V14.01,2013-05-11 10:02:00,
2013-05-11 03:03:00,60.0,56.4,30.14,NE,50,0.0,0.0,88,0.00,,---,0.00,0.00,VWS V14.01,2013-05-11 10:03:00,
2013-05-11 03:04:00,59.9,56.3,30.14,NE,50,0.0,0.0,88,0.00,,---,0.00,0.00,VWS V14.01,2013-05-11 10:04:00,
2013-05-11 03:06:00,59.9,56.3,30.14,NE,50,0.0,0.0,88,0.00,,---,0.00,0.00,VWS V14.01,2013-05-11 10:06:00,
2013-05-11 03:07:00,59.9,56.3,30.14,NE,50,0.0,0.0,88,0.00,,---,0.00,0.00,VWS V14.01,2013-05-11 10:07:00,
2013-05-11 03:08:00,59.9,56.3,30.14,NE,50,0.0,0.0,88,0.00,,---,0.00,0.00,VWS V14.01,2013-05-11 10:08:00,
2013-05-11 03:09:00,59.8,56.2,30.14,NE,50,0.0,0.0,88,0.00,,---,0.00,0.00,VWS V14.01,2013-05-11 10:09:00,
2013-05-11 03:11:00,59.8,56.2,30.14,NE,50,0.0,0.0,88,0.00,,---,0.00,0.00,VWS V14.01,2013-05-11 10:11:00,
2013-05-11 03:12:00,59.8,56.2,30.14,NE,50,0.0,0.0,88,0.00,,---,0.00,0.00,VWS V14.01,2013-05-11 10:12:00,
2013-05-11 03:13:00,59.8,56.2,30.14,NE,50,0.0,0.0,88,0.00,,---,0.00,0.00,VWS V14.01,2013-05-11 10:13:00,
2013-05-11 03:14:00,59.8,56.2,30.14,NE,50,0.0,0.0,88,0.00,,---,0.00,0.00,VWS V14.01,2013-05-11 10:14:00,
2013-05-11 03:17:00,59.7,56.2,30.14,NE,50,0.0,0.0,88,0.00,,---,0.00,0.00,VWS V14.01,2013-05-11 10:17:00,
2013-05-11 03:18:00,59.7,56.2,30.14,NE,50,0.0,0.0,88,0.00,,---,0.00,0.00,VWS V14.01,2013-05-11 10:18:00,
2013-05-11 03:19:00,59.6,56.0,30.14,NE,50,0.0,0.0,88,0.00,,---,0.00,0.00,VWS V14.01,2013-05-11 10:19:00,
2013-05-11 03:22:00,59.6,56.4,30.14,NE,50,0.0,0.0,89,0.00,,---,0.00,0.00,VWS V14.01,2013-05-11 10:22:00,
2013-05-11 03:23:00,59.6,56.4,30.14,NE,50,0.0,0.0,89,0.00,,---,0.00,0.00,VWS V14.01,2013-05-11 10:23:00,
2013-05-11 03:25:00,59.5,56.3,30.14,NE,50,0.0,0.0,89,0.00,,---,0.00,0.00,VWS V14.01,2013-05-11 10:25:00,
2013-05-11 03:27:00,59.4,56.2,30.14,NE,50,0.0,0.0,89,0.00,,---,0.00,0.00,VWS V14.01,2013-05-11 10:27:00,
2013-05-11 03:28:00,59.4,56.2,30.14,NE,50,0.0,0.0,89,0.00,,---,0.00,0.00,VWS V14.01,2013-05-11 10:28:00,
2013-05-11 03:30:00,59.3,56.1,30.14,NE,50,0.0,0.0,89,0.00,,---,0.00,0.00,VWS V14.01,2013-05-11 10:30:00,
2013-05-11 03:32:00,59.2,56.0,30.14,NE,50,0.0,0.0,89,0.00,,---,0.00,0.00,VWS V14.01,2013-05-11 10:32:00,
2013-05-11 03:33:00,59.2,56.0,30.14,NE,50,0.0,0.0,89,0.00,,---,0.00,0.00,VWS V14.01,2013-05-11 10:33:00,
2013-05-11 03:34:00,59.2,56.0,30.14,NE,50,0.0,0.0,89,0.00,,---,0.00,0.00,VWS V14.01,2013-05-11 10:34:00,
2013-05-11 03:35:00,59.1,55.9,30.14,NE,50,0.0,0.0,89,0.00,,---,0.00,0.00,VWS V14.01,2013-05-11 10:35:00,
2013-05-11 03:37:00,59.1,55.5,30.14,NE,50,0.0,0.0,88,0.00,,---,0.00,0.00,VWS V14.01,2013-05-11 10:37:00,
2013-05-11 03:38:00,59.0,55.5,30.14,NE,50,0.0,0.0,88,0.00,,---,0.00,0.00,VWS V14.01,2013-05-11 10:38:00,
2013-05-11 03:39:00,59.0,55.5,30.14,NE,50,0.0,0.0,88,0.00,,---,0.00,0.00,VWS V14.01,2013-05-11 10:39:00,
2013-05-11 03:40:00,59.0,55.5,30.14,NE,50,0.0,0.0,88,0.00,,---,0.00,0.00,VWS V14.01,2013-05-11 10:40:00,
2013-05-11 03:42:00,58.9,55.7,30.14,NE,50,0.0,0.0,89,0.00,,---,0.00,0.00,VWS V14.01,2013-05-11 10:42:00,
2013-05-11 03:43:00,58.9,55.7,30.14,NE,50,0.0,0.0,89,0.00,,---,0.00,0.00,VWS V14.01,2013-05-11 10:43:00,
2013-05-11 03:44:00,58.9,55.7,30.14,NE,50,0.0,1.0,89,0.00,,---,0.00,0.00,VWS V14.01,2013-05-11 10:44:00,
2013-05-11 03:45:00,58.9,55.7,30.14,NE,50,0.0,0.0,89,0.00,,---,0.00,0.00,VWS V14.01,2013-05-11 10:45:00,
2013-05-11 03:47:00,58.7,55.8,30.14,NE,50,0.0,0.0,90,0.00,,---,0.00,0.00,VWS V14.01,2013-05-11 10:47:00,
2013-05-11 03:48:00,58.6,55.7,30.14,NE,50,0.0,0.0,90,0.00,,---,0.00,0.00,VWS V14.01,2013-05-11 10:48:00,
2013-05-11 03:49:00,58.6,55.7,30.14,NE,50,0.0,0.0,90,0.00,,---,0.00,0.00,VWS V14.01,2013-05-11 10:49:00,
2013-05-11 03:50:00,58.6,55.7,30.14,NE,50,0.0,0.0,90,0.00,,---,0.00,0.00,VWS V14.01,2013-05-11 10:50:00,
2013-05-11 03:52:00,58.5,55.6,30.14,NE,50,0.0,0.0,90,0.00,,---,0.00,0.00,VWS V14.01,2013-05-11 10:52:00,
2013-05-11 03:53:00,58.4,55.5,30.15,NE,50,0.0,0.0,90,0.00,,---,0.00,0.00,VWS V14.01,2013-05-11 10:53:00,
2013-05-11 03:54:00,58.4,55.5,30.14,NE,50,0.0,0.0,90,0.00,,---,0.00,0.00,VWS V14.01,2013-05-11 10:54:00,
2013-05-11 03:55:00,58.3,55.4,30.14,NE,50,0.0,0.0,90,0.00,,---,0.00,0.00,VWS V14.01,2013-05-11 10:55:00,
2013-05-11 03:58:00,58.1,55.2,30.14,NE,50,0.0,0.0,90,0.00,,---,0.00,0.00,VWS V14.01,2013-05-11 10:58:00,
2013-05-11 03:59:00,58.1,55.2,30.14,NE,50,0.0,0.0,90,0.00,,---,0.00,0.00,VWS V14.01,2013-05-11 10:59:00,
2013-05-11 04:00:00,58.0,55.1,30.14,NE,50,0.0,0.0,90,0.00,,---,0.00,0.00,VWS V14.01,2013-05-11 11:00:00,
2013-05-11 04:03:00,57.9,55.0,30.14,NE,50,0.0,0.0,90,0.00,,---,0.00,0.00,VWS V14.01,2013-05-11 11:03:00,
2013-05-11 04:04:00,57.9,54.7,30.14,NE,50,0.0,0.0,89,0.00,,---,0.00,0.00,VWS V14.01,2013-05-11 11:04:00,
2013-05-11 04:05:00,57.9,54.7,30.14,NE,50,0.0,0.0,89,0.00,,---,0.00,0.00,VWS V14.01,2013-05-11 11:05:00,
2013-05-11 04:08:00,57.9,55.0,30.14,NE,50,0.0,0.0,90,0.00,,---,0.00,0.00,VWS V14.01,2013-05-11 11:08:00,
2013-05-11 04:09:00,57.9,55.0,30.14,NE,50,0.0,0.0,90,0.00,,---,0.00,0.00,VWS V14.01,2013-05-11 11:09:00,
2013-05-11 04:10:00,57.9,55.0,30.14,NE,50,0.0,0.0,90,0.00,,---,0.00,0.00,VWS V14.01,2013-05-11 11:10:00,
2013-05-11 04:13:00,57.9,55.3,30.14,NE,50,0.0,0.0,91,0.00,,---,0.00,0.00,VWS V14.01,2013-05-11 11:13:00,
2013-05-11 04:14:00,57.9,55.3,30.14,NE,50,0.0,0.0,91,0.00,,---,0.00,0.00,VWS V14.01,2013-05-11 11:14:00,
2013-05-11 04:15:00,57.9,55.3,30.14,NE,50,0.0,0.0,91,0.00,,---,0.00,0.00,VWS V14.01,2013-05-11 11:15:00,
2013-05-11 04:18:00,57.8,54.9,30.13,NE,50,0.0,0.0,90,0.00,,---,0.00,0.00,VWS V14.01,2013-05-11 11:18:00,
2013-05-11 04:19:00,57.8,54.9,30.13,NE,50,0.0,0.0,90,0.00,,---,0.00,0.00,VWS V14.01,2013-05-11 11:19:00,
2013-05-11 04:20:00,57.8,54.9,30.13,NE,50,0.0,0.0,90,0.00,,---,0.00,0.00,VWS V14.01,2013-05-11 11:20:00,
2013-05-11 04:21:00,57.7,54.8,30.13,NE,50,0.0,0.0,90,0.00,,---,0.00,0.00,VWS V14.01,2013-05-11 11:21:00,
2013-05-11 04:23:00,57.7,54.8,30.13,NE,50,0.0,0.0,90,0.00,,---,0.00,0.00,VWS V14.01,2013-05-11 11:23:00,
2013-05-11 04:24:00,57.7,54.8,30.13,NE,50,0.0,0.0,90,0.00,,---,0.00,0.00,VWS V14.01,2013-05-11 11:24:00,
2013-05-11 04:25:00,57.7,55.1,30.13,NE,50,0.0,0.0,91,0.00,,---,0.00,0.00,VWS V14.01,2013-05-11 11:25:00,
2013-05-11 04:26:00,57.6,55.0,30.13,NE,50,0.0,0.0,91,0.00,,---,0.00,0.00,VWS V14.01,2013-05-11 11:26:00,
2013-05-11 04:28:00,57.5,54.9,30.13,NE,50,0.0,0.0,91,0.00,,---,0.00,0.00,VWS V14.01,2013-05-11 11:28:00,
2013-05-11 04:29:00,57.4,54.8,30.13,NE,50,0.0,0.0,91,0.00,,---,0.00,0.00,VWS V14.01,2013-05-11 11:29:00,
2013-05-11 04:30:00,57.4,54.8,30.13,NE,50,0.0,0.0,91,0.00,,---,0.00,0.00,VWS V14.01,2013-05-11 11:30:00,
2013-05-11 04:31:00,57.3,54.4,30.13,NE,50,0.0,0.0,90,0.00,,---,0.00,0.00,VWS V14.01,2013-05-11 11:31:00,
2013-05-11 04:34:00,57.0,54.4,30.13,NE,50,0.0,0.0,91,0.00,,---,0.00,0.00,VWS V14.01,2013-05-11 11:34:00,
2013-05-11 04:35:00,56.9,54.0,30.13,NE,50,0.0,0.0,90,0.00,,---,0.00,0.00,VWS V14.01,2013-05-11 11:35:00,
2013-05-11 04:36:00,56.8,54.2,30.13,NE,50,0.0,1.0,91,0.00,,---,0.00,0.00,VWS V14.01,2013-05-11 11:36:00,
2013-05-11 04:39:00,56.6,54.3,30.13,NE,50,0.0,1.0,92,0.00,,---,0.00,0.00,VWS V14.01,2013-05-11 11:39:00,
2013-05-11 04:40:00,56.6,54.3,30.13,NE,50,0.0,1.0,92,0.00,,---,0.00,0.00,VWS V14.01,2013-05-11 11:40:00,
2013-05-11 04:41:00,56.5,54.2,30.13,NE,50,0.0,1.0,92,0.00,,---,0.00,0.00,VWS V14.01,2013-05-11 11:41:00,
2013-05-11 04:44:00,56.5,54.5,30.13,NE,50,0.0,1.0,93,0.00,,---,0.00,0.00,VWS V14.01,2013-05-11 11:44:00,
2013-05-11 04:45:00,56.5,54.5,30.13,NE,50,0.0,0.0,93,0.00,,---,0.00,0.00,VWS V14.01,2013-05-11 11:45:00,
2013-05-11 04:46:00,56.4,54.4,30.13,NE,50,0.0,0.0,93,0.00,,---,0.00,0.00,VWS V14.01,2013-05-11 11:46:00,
2013-05-11 04:49:00,56.4,54.4,30.12,NE,50,0.0,0.0,93,0.00,,---,0.00,0.00,VWS V14.01,2013-05-11 11:49:00,
2013-05-11 04:50:00,56.4,54.4,30.12,NE,50,0.0,0.0,93,0.00,,---,0.00,0.00,VWS V14.01,2013-05-11 11:50:00,
2013-05-11 04:51:00,56.3,54.3,30.12,NE,50,0.0,0.0,93,0.00,,---,0.00,0.00,VWS V14.01,2013-05-11 11:51:00,
2013-05-11 04:54:00,56.2,54.2,30.12,NE,50,0.0,0.0,93,0.00,,---,0.00,0.00,VWS V14.01,2013-05-11 11:54:00,
2013-05-11 04:55:00,56.2,54.2,30.12,NE,50,0.0,0.0,93,0.00,,---,0.00,0.00,VWS V14.01,2013-05-11 11:55:00,
2013-05-11 04:56:00,56.2,54.2,30.12,NE,50,0.0,0.0,93,0.00,,---,0.00,0.00,VWS V14.01,2013-05-11 11:56:00,
2013-05-11 04:59:00,56.1,54.1,30.12,NE,50,0.0,0.0,93,0.00,,---,0.00,0.00,VWS V14.01,2013-05-11 11:59:00,
2013-05-11 05:00:00,56.0,54.0,30.12,NE,50,0.0,0.0,93,0.00,,---,0.00,0.00,VWS V14.01,2013-05-11 12:00:00,
2013-05-11 05:01:00,56.0,54.0,30.12,NE,50,0.0,0.0,93,0.00,,---,0.00,0.00,VWS V14.01,2013-05-11 12:01:00,
2013-05-11 05:04:00,55.9,53.9,30.12,NE,50,0.0,0.0,93,0.00,,---,0.00,0.00,VWS V14.01,2013-05-11 12:04:00,
2013-05-11 05:05:00,55.9,53.9,30.12,NE,50,0.0,0.0,93,0.00,,---,0.00,0.00,VWS V14.01,2013-05-11 12:05:00,
2013-05-11 05:06:00,55.9,53.9,30.12,NE,50,0.0,0.0,93,0.00,,---,0.00,0.00,VWS V14.01,2013-05-11 12:06:00,
2013-05-11 05:07:00,55.9,53.9,30.12,NE,50,0.0,0.0,93,0.00,,---,0.00,0.00,VWS V14.01,2013-05-11 12:07:00,
2013-05-11 05:09:00,55.8,53.8,30.12,NE,50,0.0,0.0,93,0.00,,---,0.00,0.00,VWS V14.01,2013-05-11 12:09:00,
2013-05-11 05:10:00,55.8,53.8,30.12,NE,50,0.0,0.0,93,0.00,,---,0.00,0.00,VWS V14.01,2013-05-11 12:10:00,
2013-05-11 05:11:00,55.8,53.8,30.12,NE,50,0.0,0.0,93,0.00,,---,0.00,0.00,VWS V14.01,2013-05-11 12:11:00,
2013-05-11 05:12:00,55.7,53.7,30.12,NE,50,0.0,0.0,93,0.00,,---,0.00,0.00,VWS V14.01,2013-05-11 12:12:00,
2013-05-11 05:15:00,55.7,53.7,30.12,NE,50,0.0,0.0,93,0.00,,---,0.00,0.00,VWS V14.01,2013-05-11 12:15:00,
2013-05-11 05:16:00,55.6,53.6,30.12,NE,50,0.0,0.0,93,0.00,,---,0.00,0.00,VWS V14.01,2013-05-11 12:16:00,
2013-05-11 05:17:00,55.6,53.6,30.12,NE,50,0.0,0.0,93,0.00,,---,0.00,0.00,VWS V14.01,2013-05-11 12:17:00,
2013-05-11 05:20:00,55.5,53.5,30.12,NE,50,0.0,0.0,93,0.00,,---,0.00,0.00,VWS V14.01,2013-05-11 12:20:00,
2013-05-11 05:21:00,55.5,53.5,30.12,NE,50,0.0,0.0,93,0.00,,---,0.00,0.00,VWS V14.01,2013-05-11 12:21:00,
2013-05-11 05:22:00,55.5,53.5,30.12,NE,50,0.0,0.0,93,0.00,,---,0.00,0.00,VWS V14.01,2013-05-11 12:22:00,
2013-05-11 05:25:00,55.4,53.4,30.12,NE,50,0.0,0.0,93,0.00,,---,0.00,0.00,VWS V14.01,2013-05-11 12:25:00,
2013-05-11 05:26:00,55.3,53.3,30.12,NE,50,0.0,0.0,93,0.00,,---,0.00,0.00,VWS V14.01,2013-05-11 12:26:00,
2013-05-11 05:27:00,55.3,53.3,30.12,NE,50,0.0,0.0,93,0.00,,---,0.00,0.00,VWS V14.01,2013-05-11 12:27:00,
2013-05-11 05:31:00,55.2,53.2,30.12,NE,50,0.0,0.0,93,0.00,,---,0.00,0.00,VWS V14.01,2013-05-11 12:31:00,
2013-05-11 05:32:00,55.2,53.2,30.12,NE,50,0.0,0.0,93,0.00,,---,0.00,0.00,VWS V14.01,2013-05-11 12:32:00,
2013-05-11 05:36:00,55.1,53.1,30.12,NE,50,0.0,1.0,93,0.00,,---,0.00,0.00,VWS V14.01,2013-05-11 12:36:00,
2013-05-11 05:37:00,55.1,53.1,30.12,NE,50,0.0,1.0,93,0.00,,---,0.00,0.00,VWS V14.01,2013-05-11 12:37:00,
2013-05-11 05:41:00,54.9,52.9,30.12,NE,50,0.0,1.0,93,0.00,,---,0.00,0.00,VWS V14.01,2013-05-11 12:41:00,
2013-05-11 05:42:00,55.0,53.0,30.12,NE,50,0.0,1.0,93,0.00,,---,0.00,0.00,VWS V14.01,2013-05-11 12:42:00,
2013-05-11 05:43:00,54.9,52.9,30.12,NE,50,0.0,1.0,93,0.00,,---,0.00,0.00,VWS V14.01,2013-05-11 12:43:00,
2013-05-11 05:46:00,54.8,52.8,30.11,NE,50,0.0,0.0,93,0.00,,---,0.00,0.00,VWS V14.01,2013-05-11 12:46:00,
2013-05-11 05:47:00,54.8,52.8,30.11,NE,50,0.0,0.0,93,0.00,,---,0.00,0.00,VWS V14.01,2013-05-11 12:47:00,
2013-05-11 05:48:00,54.8,52.8,30.11,NE,50,0.0,0.0,93,0.00,,---,0.00,0.00,VWS V14.01,2013-05-11 12:48:00,
2013-05-11 05:51:00,54.7,53.0,30.11,NE,50,0.0,0.0,94,0.00,,---,0.00,0.00,VWS V14.01,2013-05-11 12:51:00,
2013-05-11 05:52:00,54.7,53.0,30.11,NE,50,0.0,0.0,94,0.00,,---,0.00,0.00,VWS V14.01,2013-05-11 12:52:00,
2013-05-11 05:53:00,54.6,52.9,30.11,NE,50,0.0,0.0,94,0.00,,---,0.00,0.00,VWS V14.01,2013-05-11 12:53:00,
2013-05-11 05:57:00,54.6,52.9,30.11,NE,50,0.0,0.0,94,0.00,,---,0.00,0.00,VWS V14.01,2013-05-11 12:57:00,
2013-05-11 05:59:00,54.5,52.8,30.11,NE,50,0.0,0.0,94,0.00,,---,0.00,5.00,VWS V14.01,2013-05-11 12:59:00,
2013-05-11 06:02:00,54.5,52.8,30.11,NE,50,0.0,0.0,94,0.00,,---,0.00,5.00,VWS V14.01,2013-05-11 13:02:00,
2013-05-11 06:04:00,54.5,52.8,30.11,NE,50,0.0,0.0,94,0.00,,---,0.00,7.00,VWS V14.01,2013-05-11 13:04:00,
2013-05-11 06:07:00,54.4,52.7,30.12,NE,50,0.0,0.0,94,0.00,,---,0.00,7.00,VWS V14.01,2013-05-11 13:07:00,
2013-05-11 06:08:00,54.3,52.6,30.12,NE,50,0.0,0.0,94,0.00,,---,0.00,7.00,VWS V14.01,2013-05-11 13:08:00,
2013-05-11 06:09:00,54.2,52.5,30.12,NE,50,0.0,0.0,94,0.00,,---,0.00,9.00,VWS V14.01,2013-05-11 13:09:00,
2013-05-11 06:12:00,54.1,52.4,30.12,NE,50,0.0,0.0,94,0.00,,---,0.00,9.00,VWS V14.01,2013-05-11 13:12:00,
2013-05-11 06:13:00,54.1,52.4,30.12,NE,50,0.0,0.0,94,0.00,,---,0.00,11.00,VWS V14.01,2013-05-11 13:13:00,
2013-05-11 06:15:00,54.1,52.4,30.12,NE,50,0.0,0.0,94,0.00,,---,0.00,11.00,VWS V14.01,2013-05-11 13:15:00,
2013-05-11 06:17:00,54.1,52.4,30.12,NE,50,0.0,0.0,94,0.00,,---,0.00,12.00,VWS V14.01,2013-05-11 13:17:00,
2013-05-11 06:18:00,54.1,52.4,30.12,NE,50,0.0,0.0,94,0.00,,---,0.00,12.00,VWS V14.01,2013-05-11 13:18:00,
2013-05-11 06:20:00,54.2,52.5,30.12,NE,50,0.0,0.0,94,0.00,,---,0.00,14.00,VWS V14.01,2013-05-11 13:20:00,
2013-05-11 06:22:00,54.2,52.8,30.12,NE,50,0.0,0.0,95,0.00,,---,0.00,16.00,VWS V14.01,2013-05-11 13:22:00,
2013-05-11 06:23:00,54.2,52.5,30.12,NE,50,0.0,0.0,94,0.00,,---,0.00,18.00,VWS V14.01,2013-05-11 13:23:00,
2013-05-11 06:25:00,54.2,52.5,30.12,NE,50,0.0,0.0,94,0.00,,---,0.00,19.00,VWS V14.01,2013-05-11 13:25:00,
2013-05-11 06:27:00,54.2,52.8,30.12,NE,50,0.0,0.0,95,0.00,,---,0.00,21.00,VWS V14.01,2013-05-11 13:27:00,
2013-05-11 06:28:00,54.3,52.9,30.12,NE,50,0.0,0.0,95,0.00,,---,0.00,23.00,VWS V14.01,2013-05-11 13:28:00,
2013-05-11 06:30:00,54.3,52.9,30.12,NE,50,0.0,0.0,95,0.00,,---,0.00,25.00,VWS V14.01,2013-05-11 13:30:00,
2013-05-11 06:32:00,54.2,52.5,30.12,NE,50,0.0,0.0,94,0.00,,---,0.00,26.00,VWS V14.01,2013-05-11 13:32:00,
2013-05-11 06:33:00,54.2,52.5,30.12,NE,50,0.0,0.0,94,0.00,,---,0.00,28.00,VWS V14.01,2013-05-11 13:33:00,
2013-05-11 06:35:00,54.1,52.4,30.12,NE,50,0.0,0.0,94,0.00,,---,0.00,30.00,VWS V14.01,2013-05-11 13:35:00,
2013-05-11 06:38:00,54.1,52.4,30.12,NE,50,0.0,0.0,94,0.00,,---,0.00,33.00,VWS V14.01,2013-05-11 13:38:00,
2013-05-11 06:39:00,54.1,52.4,30.12,NE,50,0.0,0.0,94,0.00,,---,0.00,35.00,VWS V14.01,2013-05-11 13:39:00,
2013-05-11 06:40:00,54.1,52.4,30.12,NE,50,0.0,0.0,94,0.00,,---,0.00,39.00,VWS V14.01,2013-05-11 13:40:00,
2013-05-11 06:43:00,54.1,52.7,30.12,NE,50,0.0,0.0,95,0.00,,---,0.00,40.00,VWS V14.01,2013-05-11 13:43:00,
2013-05-11 06:44:00,54.1,52.7,30.12,NE,50,0.0,0.0,95,0.00,,---,0.00,42.00,VWS V14.01,2013-05-11 13:44:00,
2013-05-11 06:46:00,54.1,52.7,30.12,NE,50,0.0,0.0,95,0.00,,---,0.00,46.00,VWS V14.01,2013-05-11 13:46:00,
2013-05-11 06:48:00,54.1,52.7,30.12,NE,50,0.0,0.0,95,0.00,,---,0.00,47.00,VWS V14.01,2013-05-11 13:48:00,
2013-05-11 06:49:00,54.1,52.7,30.12,NE,50,0.0,0.0,95,0.00,,---,0.00,49.00,VWS V14.01,2013-05-11 13:49:00,
2013-05-11 06:51:00,54.2,52.8,30.12,NE,50,0.0,0.0,95,0.00,,---,0.00,51.00,VWS V14.01,2013-05-11 13:51:00,
2013-05-11 06:53:00,54.3,52.9,30.12,NE,50,0.0,0.0,95,0.00,,---,0.00,53.00,VWS V14.01,2013-05-11 13:53:00,
2013-05-11 06:54:00,54.3,52.9,30.13,NE,50,0.0,0.0,95,0.00,,---,0.00,53.00,VWS V14.01,2013-05-11 13:54:00,
2013-05-11 06:56:00,54.4,53.0,30.13,NE,50,0.0,0.0,95,0.00,,---,0.00,56.00,VWS V14.01,2013-05-11 13:56:00,
2013-05-11 06:58:00,54.4,53.0,30.13,NE,50,0.0,0.0,95,0.00,,---,0.00,58.00,VWS V14.01,2013-05-11 13:58:00,
2013-05-11 06:59:00,54.5,53.1,30.13,NE,50,0.0,0.0,95,0.00,,---,0.00,58.00,VWS V14.01,2013-05-11 13:59:00,
2013-05-11 07:01:00,54.6,53.5,30.12,NE,50,0.0,0.0,96,0.00,,---,0.00,63.00,VWS V14.01,2013-05-11 14:01:00,
2013-05-11 07:03:00,54.8,53.7,30.12,NE,50,0.0,0.0,96,0.00,,---,0.00,65.00,VWS V14.01,2013-05-11 14:03:00,
2013-05-11 07:04:00,54.8,53.7,30.12,NE,50,0.0,0.0,96,0.00,,---,0.00,65.00,VWS V14.01,2013-05-11 14:04:00,
2013-05-11 07:06:00,54.9,53.8,30.12,NE,50,0.0,0.0,96,0.00,,---,0.00,67.00,VWS V14.01,2013-05-11 14:06:00,
2013-05-11 07:08:00,55.0,53.9,30.12,NE,50,0.0,0.0,96,0.00,,---,0.00,69.00,VWS V14.01,2013-05-11 14:08:00,
2013-05-11 07:09:00,55.0,53.9,30.12,NE,50,0.0,0.0,96,0.00,,---,0.00,69.00,VWS V14.01,2013-05-11 14:09:00,
2013-05-11 07:11:00,55.2,53.8,30.12,NE,50,0.0,1.0,95,0.00,,---,0.00,69.00,VWS V14.01,2013-05-11 14:11:00,
2013-05-11 07:14:00,55.3,53.9,30.13,NE,50,0.0,1.0,95,0.00,,---,0.00,70.00,VWS V14.01,2013-05-11 14:14:00,
2013-05-11 07:16:00,55.4,54.0,30.13,NE,50,0.0,0.0,95,0.00,,---,0.00,72.00,VWS V14.01,2013-05-11 14:16:00,
2013-05-11 07:19:00,55.5,54.1,30.13,NE,50,0.0,0.0,95,0.00,,---,0.00,74.00,VWS V14.01,2013-05-11 14:19:00,
2013-05-11 07:22:00,55.7,54.3,30.13,NE,50,0.0,0.0,95,0.00,,---,0.00,74.00,VWS V14.01,2013-05-11 14:22:00,
2013-05-11 07:24:00,55.8,54.4,30.12,NE,50,0.0,0.0,95,0.00,,---,0.00,76.00,VWS V14.01,2013-05-11 14:24:00,
2013-05-11 07:25:00,55.8,54.4,30.12,NE,50,0.0,0.0,95,0.00,,---,0.00,77.00,VWS V14.01,2013-05-11 14:25:00,
2013-05-11 07:27:00,56.0,54.6,30.12,NE,50,0.0,0.0,95,0.00,,---,0.00,81.00,VWS V14.01,2013-05-11 14:27:00,
2013-05-11 07:29:00,56.1,54.7,30.12,NE,50,0.0,1.0,95,0.00,,---,0.00,86.00,VWS V14.01,2013-05-11 14:29:00,
2013-05-11 07:30:00,56.2,54.8,30.12,NE,50,0.0,1.0,95,0.00,,---,0.00,91.00,VWS V14.01,2013-05-11 14:30:00,
2013-05-11 07:32:00,56.4,54.7,30.12,NE,50,0.0,0.0,94,0.00,,---,0.00,153.00,VWS V14.01,2013-05-11 14:32:00,
2013-05-11 07:35:00,56.6,54.9,30.12,NE,50,0.0,0.0,94,0.00,,---,0.00,179.00,VWS V14.01,2013-05-11 14:35:00,
2013-05-11 07:36:00,56.7,55.0,30.12,NE,50,0.0,0.0,94,0.00,,---,0.00,199.00,VWS V14.01,2013-05-11 14:36:00,
2013-05-11 07:38:00,56.9,55.2,30.12,NE,50,0.0,0.0,94,0.00,,---,0.00,206.00,VWS V14.01,2013-05-11 14:38:00,
2013-05-11 07:40:00,57.2,55.2,30.12,North,355,0.0,0.0,93,0.00,,---,0.00,202.00,VWS V14.01,2013-05-11 14:40:00,
2013-05-11 07:41:00,57.5,55.5,30.12,South,175,0.0,1.0,93,0.00,,---,0.00,200.00,VWS V14.01,2013-05-11 14:41:00,
2013-05-11 07:43:00,57.8,55.8,30.12,South,175,0.0,1.0,93,0.00,,---,0.00,200.00,VWS V14.01,2013-05-11 14:43:00,
2013-05-11 07:45:00,58.3,56.0,30.12,South,175,0.0,0.0,92,0.00,,---,0.00,174.00,VWS V14.01,2013-05-11 14:45:00,
2013-05-11 07:46:00,58.4,56.1,30.12,South,175,0.0,0.0,92,0.00,,---,0.00,160.00,VWS V14.01,2013-05-11 14:46:00,
2013-05-11 07:48:00,58.6,56.0,30.12,South,175,0.0,0.0,91,0.00,,---,0.00,178.00,VWS V14.01,2013-05-11 14:48:00,
2013-05-11 07:50:00,58.8,55.9,30.12,South,175,0.0,1.0,90,0.00,,---,0.00,197.00,VWS V14.01,2013-05-11 14:50:00,
2013-05-11 07:51:00,58.9,56.0,30.12,South,175,0.0,1.0,90,0.00,,---,0.00,204.00,VWS V14.01,2013-05-11 14:51:00,
2013-05-11 07:53:00,59.0,56.1,30.12,South,175,0.0,1.0,90,0.00,,---,0.00,218.00,VWS V14.01,2013-05-11 14:53:00,
2013-05-11 07:55:00,59.2,56.3,30.12,South,175,0.0,1.0,90,0.00,,---,0.00,246.00,VWS V14.01,2013-05-11 14:55:00,
2013-05-11 07:56:00,59.2,56.3,30.12,South,175,0.0,1.0,90,0.00,,---,0.00,246.00,VWS V14.01,2013-05-11 14:56:00,
2013-05-11 07:57:00,59.3,56.7,30.12,South,175,0.0,1.0,91,0.00,,---,0.00,264.00,VWS V14.01,2013-05-11 14:57:00,
2013-05-11 07:58:00,59.5,56.6,30.12,South,175,0.0,1.0,90,0.00,,---,0.00,281.00,VWS V14.01,2013-05-11 14:58:00,
2013-05-11 08:01:00,59.6,56.4,30.12,South,175,0.0,0.0,89,0.00,,---,0.00,287.00,VWS V14.01,2013-05-11 15:01:00,
2013-05-11 08:02:00,59.7,56.2,30.12,South,175,0.0,0.0,88,0.00,,---,0.00,278.00,VWS V14.01,2013-05-11 15:02:00,
2013-05-11 08:03:00,59.8,56.2,30.12,South,175,0.0,0.0,88,0.00,,---,0.00,276.00,VWS V14.01,2013-05-11 15:03:00,
2013-05-11 08:06:00,60.0,56.8,30.12,South,175,0.0,0.0,89,0.00,,---,0.00,262.00,VWS V14.01,2013-05-11 15:06:00,
2013-05-11 08:07:00,60.1,56.8,30.12,South,175,0.0,0.0,89,0.00,,---,0.00,243.00,VWS V14.01,2013-05-11 15:07:00,
2013-05-11 08:09:00,60.3,56.7,30.12,South,175,0.0,0.0,88,0.00,,---,0.00,186.00,VWS V14.01,2013-05-11 15:09:00,
2013-05-11 08:11:00,60.4,56.5,30.12,South,175,0.0,0.0,87,0.00,,---,0.00,202.00,VWS V14.01,2013-05-11 15:11:00,
2013-05-11 08:12:00,60.5,56.3,30.12,South,175,0.0,0.0,86,0.00,,---,0.00,202.00,VWS V14.01,2013-05-11 15:12:00,
2013-05-11 08:14:00,60.7,56.8,30.12,South,175,0.0,0.0,87,0.00,,---,0.00,207.00,VWS V14.01,2013-05-11 15:14:00,
2013-05-11 08:16:00,60.9,57.0,30.11,South,175,0.0,0.0,87,0.00,,---,0.00,167.00,VWS V14.01,2013-05-11 15:16:00,
2013-05-11 08:17:00,61.0,57.1,30.11,South,175,0.0,0.0,87,0.00,,---,0.00,155.00,VWS V14.01,2013-05-11 15:17:00,
2013-05-11 08:19:00,61.2,57.0,30.11,South,175,0.0,0.0,86,0.00,,---,0.00,146.00,VWS V14.01,2013-05-11 15:19:00,
2013-05-11 08:21:00,61.4,56.9,30.11,South,175,0.0,0.0,85,0.00,,---,0.00,142.00,VWS V14.01,2013-05-11 15:21:00,
2013-05-11 08:22:00,61.4,56.9,30.11,South,175,0.0,0.0,85,0.00,,---,0.00,142.00,VWS V14.01,2013-05-11 15:22:00,
2013-05-11 08:23:00,61.4,57.2,30.11,South,175,0.0,0.0,86,0.00,,---,0.00,127.00,VWS V14.01,2013-05-11 15:23:00,
2013-05-11 08:25:00,61.5,57.0,30.11,South,175,0.0,0.0,85,0.00,,---,0.00,146.00,VWS V14.01,2013-05-11 15:25:00,
2013-05-11 08:27:00,61.6,57.4,30.11,South,175,0.0,0.0,86,0.00,,---,0.00,153.00,VWS V14.01,2013-05-11 15:27:00,
2013-05-11 08:28:00,61.6,57.0,30.11,South,175,0.0,0.0,85,0.00,,---,0.00,165.00,VWS V14.01,2013-05-11 15:28:00,
2013-05-11 08:30:00,61.7,56.8,30.11,South,175,0.0,0.0,84,0.00,,---,0.00,176.00,VWS V14.01,2013-05-11 15:30:00,
2013-05-11 08:31:00,61.7,56.8,30.11,South,175,0.0,0.0,84,0.00,,---,0.00,250.00,VWS V14.01,2013-05-11 15:31:00,
2013-05-11 08:32:00,61.7,56.8,30.11,South,175,0.0,0.0,84,0.00,,---,0.00,237.00,VWS V14.01,2013-05-11 15:32:00,
2013-05-11 08:33:00,61.8,56.9,30.11,South,175,0.0,0.0,84,0.00,,---,0.00,227.00,VWS V14.01,2013-05-11 15:33:00,
2013-05-11 08:36:00,62.1,57.2,30.11,South,175,0.0,0.0,84,0.00,,---,0.00,383.00,VWS V14.01,2013-05-11 15:36:00,
2013-05-11 08:37:00,62.3,57.4,30.11,South,175,0.0,0.0,84,0.00,,---,0.00,410.00,VWS V14.01,2013-05-11 15:37:00,
2013-05-11 08:38:00,62.3,57.4,30.11,South,175,0.0,0.0,84,0.00,,---,0.00,420.00,VWS V14.01,2013-05-11 15:38:00,
2013-05-11 08:41:00,62.6,57.4,30.11,South,175,0.0,0.0,83,0.00,,---,0.00,432.00,VWS V14.01,2013-05-11 15:41:00,
2013-05-11 08:42:00,62.7,57.5,30.11,South,175,0.0,0.0,83,0.00,,---,0.00,432.00,VWS V14.01,2013-05-11 15:42:00,
2013-05-11 08:43:00,62.8,57.6,30.11,South,175,0.0,0.0,83,0.00,,---,0.00,415.00,VWS V14.01,2013-05-11 15:43:00,
2013-05-11 08:44:00,62.9,57.3,30.10,South,175,0.0,1.0,82,0.00,,---,0.00,408.00,VWS V14.01,2013-05-11 15:44:00,
2013-05-11 08:46:00,63.0,57.4,30.10,South,175,0.0,0.0,82,0.00,,---,0.00,290.00,VWS V14.01,2013-05-11 15:46:00,
2013-05-11 08:47:00,63.1,57.9,30.10,South,175,0.0,0.0,83,0.00,,---,0.00,290.00,VWS V14.01,2013-05-11 15:47:00,
2013-05-11 08:48:00,63.1,57.9,30.10,South,175,0.0,0.0,83,0.00,,---,0.00,287.00,VWS V14.01,2013-05-11 15:48:00,
2013-05-11 08:49:00,63.2,58.0,30.10,South,175,0.0,0.0,83,0.00,,---,0.00,272.00,VWS V14.01,2013-05-11 15:49:00,
2013-05-11 08:52:00,63.4,58.2,30.10,South,175,0.0,0.0,83,0.00,,---,0.00,315.00,VWS V14.01,2013-05-11 15:52:00,
2013-05-11 08:53:00,63.5,57.9,30.10,South,175,0.0,0.0,82,0.00,,---,0.00,369.00,VWS V14.01,2013-05-11 15:53:00,
2013-05-11 08:54:00,63.6,58.3,30.10,South,175,0.0,0.0,83,0.00,,---,0.00,369.00,VWS V14.01,2013-05-11 15:54:00,
2013-05-11 08:57:00,64.0,58.4,30.10,SE,143,2.0,5.0,82,0.00,,---,0.00,425.00,VWS V14.01,2013-05-11 15:57:00,
2013-05-11 08:58:00,64.2,57.9,30.10,SE,129,0.0,5.0,80,0.00,,---,0.00,438.00,VWS V14.01,2013-05-11 15:58:00,
2013-05-11 08:59:00,64.5,57.5,30.10,SE,134,0.0,5.0,78,0.00,,---,0.00,429.00,VWS V14.01,2013-05-11 15:59:00,
2013-05-11 09:02:00,65.3,58.6,30.10,SE,127,2.0,4.0,79,0.00,,---,0.00,297.00,VWS V14.01,2013-05-11 16:02:00,
2013-05-11 09:03:00,65.5,58.8,30.10,SE,146,6.0,6.0,79,0.00,,---,0.00,246.00,VWS V14.01,2013-05-11 16:03:00,
2013-05-11 09:04:00,65.7,57.9,30.10,East,100,0.0,6.0,76,0.00,,---,0.00,200.00,VWS V14.01,2013-05-11 16:04:00,
2013-05-11 09:07:00,65.9,57.8,30.10,SE,140,0.0,6.0,75,0.00,,---,0.00,355.00,VWS V14.01,2013-05-11 16:07:00,
2013-05-11 09:08:00,66.0,58.2,30.10,SE,140,0.0,6.0,76,0.00,,---,0.00,436.00,VWS V14.01,2013-05-11 16:08:00,
2013-05-11 09:09:00,66.1,58.3,30.10,SE,140,0.0,6.0,76,0.00,,---,0.00,455.00,VWS V14.01,2013-05-11 16:09:00,
2013-05-11 09:12:00,66.4,57.5,30.10,SE,140,0.0,6.0,73,0.00,,---,0.00,540.00,VWS V14.01,2013-05-11 16:12:00,
2013-05-11 09:14:00,66.6,57.3,30.10,SE,140,0.0,6.0,72,0.00,,---,0.00,538.00,VWS V14.01,2013-05-11 16:14:00,
2013-05-11 09:17:00,67.4,58.1,30.10,SE,140,0.0,0.0,72,0.00,,---,0.00,489.00,VWS V14.01,2013-05-11 16:17:00,
2013-05-11 09:19:00,67.5,57.4,30.10,SE,140,0.0,0.0,70,0.00,,---,0.00,445.00,VWS V14.01,2013-05-11 16:19:00,
2013-05-11 09:20:00,67.6,58.3,30.10,SE,140,0.0,1.0,72,0.00,,---,0.00,436.00,VWS V14.01,2013-05-11 16:20:00,
2013-05-11 09:23:00,67.8,58.5,30.10,SE,140,0.0,1.0,72,0.00,,---,0.00,455.00,VWS V14.01,2013-05-11 16:23:00,
2013-05-11 09:24:00,67.8,57.7,30.10,SE,140,0.0,1.0,70,0.00,,---,0.00,461.00,VWS V14.01,2013-05-11 16:24:00,
2013-05-11 09:25:00,67.9,58.2,30.10,South,171,0.0,1.0,71,0.00,,---,0.00,492.00,VWS V14.01,2013-05-11 16:25:00,
2013-05-11 09:28:00,68.0,57.9,30.10,South,171,0.0,1.0,70,0.00,,---,0.00,527.00,VWS V14.01,2013-05-11 16:28:00,
2013-05-11 09:29:00,68.1,58.0,30.10,South,171,0.0,1.0,70,0.00,,---,0.00,540.00,VWS V14.01,2013-05-11 16:29:00,
2013-05-11 09:30:00,68.2,58.0,30.10,South,171,0.0,1.0,70,0.00,,---,0.00,540.00,VWS V14.01,2013-05-11 16:30:00,
2013-05-11 09:33:00,68.4,58.6,30.09,South,172,0.0,1.0,71,0.00,,---,0.00,561.00,VWS V14.01,2013-05-11 16:33:00,
2013-05-11 09:34:00,68.5,58.7,30.09,SSW,205,3.0,3.0,71,0.00,,---,0.00,506.00,VWS V14.01,2013-05-11 16:34:00,
2013-05-11 09:35:00,68.5,58.7,30.09,SSW,205,1.0,3.0,71,0.00,,---,0.00,506.00,VWS V14.01,2013-05-11 16:35:00,
2013-05-11 09:38:00,68.6,59.6,30.09,SSW,211,0.0,4.0,73,0.00,,---,0.00,577.00,VWS V14.01,2013-05-11 16:38:00,
2013-05-11 09:39:00,68.6,59.2,30.09,SSW,211,0.0,4.0,72,0.00,,---,0.00,592.00,VWS V14.01,2013-05-11 16:39:00,
2013-05-11 09:40:00,68.6,59.2,30.09,SSW,213,2.0,4.0,72,0.00,,---,0.00,592.00,VWS V14.01,2013-05-11 16:40:00,
2013-05-11 09:43:00,68.7,59.3,30.09,SW,216,0.0,4.0,72,0.00,,---,0.00,596.00,VWS V14.01,2013-05-11 16:43:00,
2013-05-11 09:44:00,68.8,59.4,30.09,SW,219,0.0,4.0,72,0.00,,---,0.00,585.00,VWS V14.01,2013-05-11 16:44:00,
2013-05-11 09:45:00,68.8,59.4,30.09,SW,219,0.0,0.0,72,0.00,,---,0.00,585.00,VWS V14.01,2013-05-11 16:45:00,
2013-05-11 09:48:00,69.0,58.8,30.09,SW,221,1.0,3.0,70,0.00,,---,0.00,578.00,VWS V14.01,2013-05-11 16:48:00,
2013-05-11 09:50:00,69.0,58.8,30.09,SW,228,0.0,3.0,70,0.00,,---,0.00,564.00,VWS V14.01,2013-05-11 16:50:00,
2013-05-11 09:51:00,69.1,59.3,30.09,SW,228,0.0,3.0,71,0.00,,---,0.00,568.00,VWS V14.01,2013-05-11 16:51:00,
2013-05-11 09:54:00,69.3,59.5,30.09,SW,225,0.0,4.0,71,0.00,,---,0.00,571.00,VWS V14.01,2013-05-11 16:54:00,
2013-05-11 09:55:00,69.4,59.6,30.09,West,270,0.0,4.0,71,0.00,,---,0.00,589.00,VWS V14.01,2013-05-11 16:55:00,
2013-05-11 09:56:00,69.5,58.9,30.09,SW,233,0.0,4.0,69,0.00,,---,0.00,601.00,VWS V14.01,2013-05-11 16:56:00,
2013-05-11 09:59:00,69.6,59.0,30.09,West,259,2.0,4.0,69,0.00,,---,0.00,613.00,VWS V14.01,2013-05-11 16:59:00,
2013-05-11 10:00:00,69.7,59.1,30.08,WSW,258,0.0,0.0,69,0.00,,---,0.00,608.00,VWS V14.01,2013-05-11 17:00:00,
2013-05-11 10:01:00,69.8,59.6,30.09,WSW,258,1.0,1.0,70,0.00,,---,0.00,608.00,VWS V14.01,2013-05-11 17:01:00,
2013-05-11 10:04:00,70.2,59.6,30.08,WSW,254,0.0,3.0,69,0.00,,---,0.00,582.00,VWS V14.01,2013-05-11 17:04:00,
2013-05-11 10:06:00,70.4,59.3,30.08,WSW,255,0.0,3.0,68,0.00,,---,0.00,568.00,VWS V14.01,2013-05-11 17:06:00,
2013-05-11 10:07:00,70.5,59.4,30.08,WSW,255,0.0,3.0,68,0.00,,---,0.00,577.00,VWS V14.01,2013-05-11 17:07:00,
2013-05-11 10:09:00,70.7,58.8,30.08,WSW,253,2.0,3.0,66,0.00,,---,0.00,605.00,VWS V14.01,2013-05-11 17:09:00,
2013-05-11 10:11:00,70.6,58.7,30.08,WSW,253,0.0,3.0,66,0.00,,---,0.00,605.00,VWS V14.01,2013-05-11 17:11:00,
2013-05-11 10:12:00,70.6,58.7,30.08,WSW,253,1.0,3.0,66,0.00,,---,0.00,605.00,VWS V14.01,2013-05-11 17:12:00,
2013-05-11 10:15:00,70.7,59.2,30.08,WSW,253,0.0,3.0,67,0.00,,---,0.00,589.00,VWS V14.01,2013-05-11 17:15:00,
2013-05-11 10:16:00,70.8,58.5,30.08,WSW,252,0.0,3.0,65,0.00,,---,0.00,619.00,VWS V14.01,2013-05-11 17:16:00,
2013-05-11 10:17:00,70.9,58.6,30.08,WSW,252,0.0,3.0,65,0.00,,---,0.00,619.00,VWS V14.01,2013-05-11 17:17:00,
2013-05-11 10:20:00,71.0,58.7,30.08,WSW,251,0.0,3.0,65,0.00,,---,0.00,714.00,VWS V14.01,2013-05-11 17:20:00,
2013-05-11 10:21:00,71.1,58.8,30.08,West,262,2.0,3.0,65,0.00,,---,0.00,663.00,VWS V14.01,2013-05-11 17:21:00,
2013-05-11 10:22:00,71.1,58.3,30.08,West,262,0.0,3.0,64,0.00,,---,0.00,663.00,VWS V14.01,2013-05-11 17:22:00,
2013-05-11 10:23:00,71.1,58.8,30.08,West,262,0.0,3.0,65,0.00,,---,0.00,615.00,VWS V14.01,2013-05-11 17:23:00,
2013-05-11 10:25:00,71.3,58.5,30.08,West,261,2.0,3.0,64,0.00,,---,0.00,633.00,VWS V14.01,2013-05-11 17:25:00,
2013-05-11 10:26:00,71.5,57.8,30.08,West,261,0.0,3.0,62,0.00,,---,0.00,696.00,VWS V14.01,2013-05-11 17:26:00,
2013-05-11 10:27:00,71.7,58.9,30.08,West,261,0.0,3.0,64,0.00,,---,0.00,617.00,VWS V14.01,2013-05-11 17:27:00,
2013-05-11 10:28:00,71.8,59.4,30.08,West,261,1.0,3.0,65,0.00,,---,0.00,617.00,VWS V14.01,2013-05-11 17:28:00,
2013-05-11 10:30:00,72.1,58.8,30.08,West,263,0.0,0.0,63,0.00,,---,0.00,599.00,VWS V14.01,2013-05-11 17:30:00,
2013-05-11 10:31:00,72.3,59.5,30.08,West,263,0.0,0.0,64,0.00,,---,0.00,659.00,VWS V14.01,2013-05-11 17:31:00,
2013-05-11 10:32:00,72.4,59.5,30.08,West,263,1.0,1.0,64,0.00,,---,0.00,647.00,VWS V14.01,2013-05-11 17:32:00,
2013-05-11 10:33:00,72.5,59.2,30.08,West,262,1.0,1.0,63,0.00,,---,0.00,647.00,VWS V14.01,2013-05-11 17:33:00,
2013-05-11 10:36:00,72.8,59.5,30.08,West,273,0.0,2.0,63,0.00,,---,0.00,629.00,VWS V14.01,2013-05-11 17:36:00,
2013-05-11 10:37:00,73.0,59.7,30.08,West,273,0.0,2.0,63,0.00,,---,0.00,619.00,VWS V14.01,2013-05-11 17:37:00,
2013-05-11 10:38:00,73.1,59.8,30.08,West,273,0.0,2.0,63,0.00,,---,0.00,596.00,VWS V14.01,2013-05-11 17:38:00,
2013-05-11 10:41:00,73.5,59.7,30.08,WSW,252,0.0,4.0,62,0.00,,---,0.00,661.00,VWS V14.01,2013-05-11 17:41:00,
2013-05-11 10:42:00,73.5,60.2,30.08,WSW,258,0.0,4.0,63,0.00,,---,0.00,673.00,VWS V14.01,2013-05-11 17:42:00,
2013-05-11 10:43:00,73.6,60.2,30.08,WSW,258,0.0,4.0,63,0.00,,---,0.00,737.00,VWS V14.01,2013-05-11 17:43:00,
2013-05-11 10:46:00,73.8,60.9,30.08,West,266,0.0,1.0,64,0.00,,---,0.00,782.00,VWS V14.01,2013-05-11 17:46:00,
2013-05-11 10:48:00,74.0,60.2,30.07,SW,231,0.0,1.0,62,0.00,,---,0.00,824.00,VWS V14.01,2013-05-11 17:48:00,
2013-05-11 10:49:00,74.1,59.8,30.07,SW,228,3.0,3.0,61,0.00,,---,0.00,824.00,VWS V14.01,2013-05-11 17:49:00,
2013-05-11 10:52:00,74.1,59.3,30.07,WSW,244,2.0,4.0,60,0.00,,---,0.00,570.00,VWS V14.01,2013-05-11 17:52:00,
2013-05-11 10:53:00,74.0,59.2,30.07,WSW,238,2.0,4.0,60,0.00,,---,0.00,635.00,VWS V14.01,2013-05-11 17:53:00,
2013-05-11 10:54:00,74.0,59.2,30.07,WSW,240,0.0,4.0,60,0.00,,---,0.00,596.00,VWS V14.01,2013-05-11 17:54:00,
2013-05-11 10:57:00,74.2,60.4,30.07,WSW,240,1.0,4.0,62,0.00,,---,0.00,682.00,VWS V14.01,2013-05-11 17:57:00,
2013-05-11 10:59:00,74.4,59.6,30.07,WSW,248,0.0,4.0,60,0.00,,---,0.00,686.00,VWS V14.01,2013-05-11 17:59:00,
2013-05-11 11:00:00,74.6,60.3,30.07,WSW,248,0.0,4.0,61,0.00,,---,0.00,719.00,VWS V14.01,2013-05-11 18:00:00,
2013-05-11 11:02:00,74.9,60.1,30.07,WSW,248,0.0,1.0,60,0.00,,---,0.00,555.00,VWS V14.01,2013-05-11 18:02:00,
2013-05-11 11:04:00,75.1,59.8,30.07,WSW,248,0.0,1.0,59,0.00,,---,0.00,473.00,VWS V14.01,2013-05-11 18:04:00,
2013-05-11 11:05:00,75.1,59.8,30.07,WSW,248,0.0,1.0,59,0.00,,---,0.00,534.00,VWS V14.01,2013-05-11 18:05:00,
2013-05-11 11:07:00,75.4,60.1,30.07,WSW,248,0.0,1.0,59,0.00,,---,0.00,654.00,VWS V14.01,2013-05-11 18:07:00,
2013-05-11 11:09:00,75.6,60.3,30.07,WSW,248,0.0,1.0,59,0.00,,---,0.00,649.00,VWS V14.01,2013-05-11 18:09:00,
2013-05-11 11:10:00,75.6,60.3,30.07,WSW,248,0.0,1.0,59,0.00,,---,0.00,649.00,VWS V14.01,2013-05-11 18:10:00,
2013-05-11 11:13:00,75.9,60.6,30.07,WSW,248,0.0,1.0,59,0.00,,---,0.00,661.00,VWS V14.01,2013-05-11 18:13:00,
2013-05-11 11:15:00,76.1,61.2,30.07,WSW,249,0.0,2.0,60,0.00,,---,0.00,671.00,VWS V14.01,2013-05-11 18:15:00,
2013-05-11 11:18:00,76.5,61.1,30.07,West,281,1.0,3.0,59,0.00,,---,0.00,700.00,VWS V14.01,2013-05-11 18:18:00,
2013-05-11 11:20:00,76.6,61.7,30.07,West,275,0.0,3.0,60,0.00,,---,0.00,823.00,VWS V14.01,2013-05-11 18:20:00,
2013-05-11 11:21:00,76.7,62.7,30.07,West,279,1.0,3.0,62,0.00,,---,0.00,830.00,VWS V14.01,2013-05-11 18:21:00,
2013-05-11 11:24:00,77.0,61.6,30.07,WNW,283,0.0,3.0,59,0.00,,---,0.00,773.00,VWS V14.01,2013-05-11 18:24:00,
2013-05-11 11:25:00,77.1,61.2,30.07,WNW,283,0.0,3.0,58,0.00,,---,0.00,671.00,VWS V14.01,2013-05-11 18:25:00,
2013-05-11 11:26:00,77.1,60.7,30.07,WNW,283,0.0,3.0,57,0.00,,---,0.00,636.00,VWS V14.01,2013-05-11 18:26:00,
2013-05-11 11:29:00,77.4,60.5,30.07,West,263,1.0,3.0,56,0.00,,---,0.00,536.00,VWS V14.01,2013-05-11 18:29:00,
2013-05-11 11:30:00,77.4,61.0,30.07,West,263,0.0,1.0,57,0.00,,---,0.00,573.00,VWS V14.01,2013-05-11 18:30:00,
2013-05-11 11:31:00,77.5,61.1,30.07,West,263,0.0,1.0,57,0.00,,---,0.00,622.00,VWS V14.01,2013-05-11 18:31:00,
2013-05-11 11:32:00,77.5,61.1,30.07,West,263,0.0,1.0,57,0.00,,---,0.00,536.00,VWS V14.01,2013-05-11 18:32:00,
2013-05-11 11:34:00,77.7,60.8,30.06,West,263,1.0,1.0,56,0.00,,---,0.00,663.00,VWS V14.01,2013-05-11 18:34:00,
2013-05-11 11:35:00,77.7,61.8,30.06,West,263,0.0,1.0,58,0.00,,---,0.00,673.00,VWS V14.01,2013-05-11 18:35:00,
2013-05-11 11:36:00,77.8,60.9,30.06,WSW,238,0.0,2.0,56,0.00,,---,0.00,694.00,VWS V14.01,2013-05-11 18:36:00,
2013-05-11 11:37:00,77.8,60.9,30.06,WSW,238,0.0,2.0,56,0.00,,---,0.00,694.00,VWS V14.01,2013-05-11 18:37:00,
2013-05-11 11:39:00,77.9,62.0,30.06,WSW,240,0.0,3.0,58,0.00,,---,0.00,712.00,VWS V14.01,2013-05-11 18:39:00,
2013-05-11 11:40:00,77.9,62.0,30.06,WSW,238,3.0,4.0,58,0.00,,---,0.00,775.00,VWS V14.01,2013-05-11 18:40:00,
2013-05-11 11:42:00,77.7,60.8,30.06,WSW,243,1.0,4.0,56,0.00,,---,0.00,798.00,VWS V14.01,2013-05-11 18:42:00,
2013-05-11 11:43:00,77.7,61.3,30.06,SW,233,0.0,4.0,57,0.00,,---,0.00,788.00,VWS V14.01,2013-05-11 18:43:00,
2013-05-11 11:44:00,77.7,61.8,30.06,SW,233,0.0,4.0,58,0.00,,---,0.00,796.00,VWS V14.01,2013-05-11 18:44:00,
2013-05-11 11:46:00,77.8,62.3,30.06,SW,234,0.0,2.0,59,0.00,,---,0.00,793.00,VWS V14.01,2013-05-11 18:46:00,
2013-05-11 11:47:00,77.9,62.0,30.06,SW,234,0.0,2.0,58,0.00,,---,0.00,773.00,VWS V14.01,2013-05-11 18:47:00,
2013-05-11 11:48:00,78.0,62.0,30.06,WSW,253,1.0,2.0,58,0.00,,---,0.00,773.00,VWS V14.01,2013-05-11 18:48:00,
2013-05-11 11:49:00,78.1,62.1,30.06,West,263,1.0,3.0,58,0.00,,---,0.00,751.00,VWS V14.01,2013-05-11 18:49:00,
2013-05-11 11:51:00,78.2,62.2,30.06,West,263,0.0,3.0,58,0.00,,---,0.00,737.00,VWS V14.01,2013-05-11 18:51:00,
2013-05-11 11:52:00,78.3,62.3,30.06,West,263,0.0,3.0,58,0.00,,---,0.00,733.00,VWS V14.01,2013-05-11 18:52:00,
2013-05-11 11:53:00,78.4,62.4,30.07,West,263,0.0,3.0,58,0.00,,---,0.00,758.00,VWS V14.01,2013-05-11 18:53:00,
2013-05-11 11:54:00,78.5,61.5,30.06,NW,308,0.0,3.0,56,0.00,,---,0.00,710.00,VWS V14.01,2013-05-11 18:54:00,
2013-05-11 11:56:00,78.6,62.1,30.06,WNW,298,0.0,3.0,57,0.00,,---,0.00,728.00,VWS V14.01,2013-05-11 18:56:00,
2013-05-11 11:57:00,78.7,61.7,30.06,WNW,298,0.0,3.0,56,0.00,,---,0.00,726.00,VWS V14.01,2013-05-11 18:57:00,
2013-05-11 11:58:00,78.8,61.8,30.06,WNW,298,0.0,3.0,56,0.00,,---,0.00,752.00,VWS V14.01,2013-05-11 18:58:00,
2013-05-11 12:00:00,78.9,62.4,30.06,WNW,292,2.0,2.0,57,0.00,,---,0.00,763.00,VWS V14.01,2013-05-11 19:00:00,
2013-05-11 12:01:00,78.9,61.4,30.06,WSW,242,0.0,4.0,55,0.00,,---,0.00,707.00,VWS V14.01,2013-05-11 19:01:00,
2013-05-11 12:02:00,78.9,62.9,30.06,WSW,242,0.0,4.0,58,0.00,,---,0.00,661.00,VWS V14.01,2013-05-11 19:02:00,
2013-05-11 12:03:00,79.0,62.5,30.06,WSW,249,0.0,4.0,57,0.00,,---,0.00,726.00,VWS V14.01,2013-05-11 19:03:00,
2013-05-11 12:04:00,79.0,61.5,30.06,WSW,238,0.0,5.0,55,0.00,,---,0.00,729.00,VWS V14.01,2013-05-11 19:04:00,
2013-05-11 12:05:00,78.9,61.4,30.06,West,260,0.0,5.0,55,0.00,,---,0.00,791.00,VWS V14.01,2013-05-11 19:05:00,
2013-05-11 12:07:00,78.9,62.4,30.06,West,260,0.0,5.0,57,0.00,,---,0.00,770.00,VWS V14.01,2013-05-11 19:07:00,
2013-05-11 12:08:00,79.1,62.6,30.06,West,260,0.0,5.0,57,0.00,,---,0.00,816.00,VWS V14.01,2013-05-11 19:08:00,
2013-05-11 12:10:00,79.2,62.2,30.06,West,260,0.0,5.0,56,0.00,,---,0.00,824.00,VWS V14.01,2013-05-11 19:10:00,
2013-05-11 12:12:00,79.3,62.3,30.06,West,263,3.0,5.0,56,0.00,,---,0.00,842.00,VWS V14.01,2013-05-11 19:12:00,
2013-05-11 12:13:00,79.4,63.3,30.05,West,264,0.0,5.0,58,0.00,,---,0.00,798.00,VWS V14.01,2013-05-11 19:13:00,
2013-05-11 12:14:00,79.5,63.4,30.05,West,264,0.0,5.0,58,0.00,,---,0.00,798.00,VWS V14.01,2013-05-11 19:14:00,
2013-05-11 12:15:00,79.7,62.6,30.05,West,263,3.0,3.0,56,0.00,,---,0.00,872.00,VWS V14.01,2013-05-11 19:15:00,
2013-05-11 12:17:00,79.7,62.6,30.05,SW,236,1.0,5.0,56,0.00,,---,0.00,856.00,VWS V14.01,2013-05-11 19:17:00,
2013-05-11 12:18:00,79.7,63.6,30.05,SW,235,0.0,5.0,58,0.00,,---,0.00,856.00,VWS V14.01,2013-05-11 19:18:00,
2013-05-11 12:19:00,79.7,63.6,30.05,SW,236,0.0,5.0,58,0.00,,---,0.00,856.00,VWS V14.01,2013-05-11 19:19:00,
2013-05-11 12:20:00,79.7,62.1,30.05,West,260,2.0,5.0,55,0.00,,---,0.00,807.00,VWS V14.01,2013-05-11 19:20:00,
2013-05-11 12:21:00,79.7,62.1,30.05,West,263,0.0,5.0,55,0.00,,---,0.00,807.00,VWS V14.01,2013-05-11 19:21:00,
2013-05-11 12:23:00,79.8,62.7,30.05,West,263,0.0,5.0,56,0.00,,---,0.00,826.00,VWS V14.01,2013-05-11 19:23:00,
2013-05-11 12:24:00,79.9,62.8,30.05,West,263,0.0,5.0,56,0.00,,---,0.00,902.00,VWS V14.01,2013-05-11 19:24:00,
2013-05-11 12:25:00,80.0,62.9,30.05,SW,235,2.0,5.0,56,0.00,,---,0.00,911.00,VWS V14.01,2013-05-11 19:25:00,
2013-05-11 12:26:00,80.1,62.0,30.05,SW,230,0.0,5.0,54,0.00,,---,0.00,916.00,VWS V14.01,2013-05-11 19:26:00,
2013-05-11 12:28:00,80.1,63.0,30.05,SW,227,0.0,5.0,56,0.00,,---,0.00,932.00,VWS V14.01,2013-05-11 19:28:00,
2013-05-11 12:29:00,80.1,62.5,30.05,SW,234,2.0,5.0,55,0.00,,---,0.00,921.00,VWS V14.01,2013-05-11 19:29:00,
2013-05-11 12:30:00,80.1,62.5,30.04,SW,232,0.0,2.0,55,0.00,,---,0.00,905.00,VWS V14.01,2013-05-11 19:30:00,
2013-05-11 12:31:00,80.1,63.0,30.04,NNW,332,1.0,2.0,56,0.00,,---,0.00,889.00,VWS V14.01,2013-05-11 19:31:00,
2013-05-11 12:33:00,80.2,62.6,30.04,SW,225,2.0,4.0,55,0.00,,---,0.00,840.00,VWS V14.01,2013-05-11 19:33:00,
2013-05-11 12:34:00,80.2,62.6,30.04,SW,234,1.0,4.0,55,0.00,,---,0.00,817.00,VWS V14.01,2013-05-11 19:34:00,
2013-05-11 12:35:00,80.2,62.1,30.04,WSW,238,2.0,4.0,54,0.00,,---,0.00,803.00,VWS V14.01,2013-05-11 19:35:00,
2013-05-11 12:37:00,80.2,62.6,30.04,WSW,255,3.0,4.0,55,0.00,,---,0.00,784.00,VWS V14.01,2013-05-11 19:37:00,
2013-05-11 12:38:00,80.2,62.1,30.04,SW,233,1.0,4.0,54,0.00,,---,0.00,714.00,VWS V14.01,2013-05-11 19:38:00,
2013-05-11 12:39:00,80.3,62.2,30.04,SW,233,0.0,4.0,54,0.00,,---,0.00,701.00,VWS V14.01,2013-05-11 19:39:00,
2013-05-11 12:41:00,80.5,62.3,30.04,WSW,252,1.0,4.0,54,0.00,,---,0.00,735.00,VWS V14.01,2013-05-11 19:41:00,
2013-05-11 12:42:00,80.6,60.8,30.04,WSW,252,0.0,4.0,51,0.00,,---,0.00,733.00,VWS V14.01,2013-05-11 19:42:00,
2013-05-11 12:43:00,80.8,62.1,30.04,WSW,252,0.0,4.0,53,0.00,,---,0.00,700.00,VWS V14.01,2013-05-11 19:43:00,
2013-05-11 12:44:00,81.0,61.2,30.03,WSW,252,0.0,4.0,51,0.00,,---,0.00,698.00,VWS V14.01,2013-05-11 19:44:00,
2013-05-11 12:46:00,81.2,60.8,30.03,WSW,252,0.0,1.0,50,0.00,,---,0.00,712.00,VWS V14.01,2013-05-11 19:46:00,
2013-05-11 12:48:00,81.5,61.7,30.03,West,261,1.0,2.0,51,0.00,,---,0.00,759.00,VWS V14.01,2013-05-11 19:48:00,
2013-05-11 12:49:00,81.6,61.2,30.03,West,261,0.0,2.0,50,0.00,,---,0.00,828.00,VWS V14.01,2013-05-11 19:49:00,
2013-05-11 12:50:00,81.7,61.8,30.03,West,261,0.0,2.0,51,0.00,,---,0.00,798.00,VWS V14.01,2013-05-11 19:50:00,
2013-05-11 12:51:00,81.9,61.5,30.03,West,263,0.0,2.0,50,0.00,,---,0.00,744.00,VWS V14.01,2013-05-11 19:51:00,
2013-05-11 12:53:00,82.0,62.1,30.03,West,263,0.0,2.0,51,0.00,,---,0.00,786.00,VWS V14.01,2013-05-11 19:53:00,
2013-05-11 12:54:00,82.2,62.3,30.03,West,263,0.0,2.0,51,0.00,,---,0.00,805.00,VWS V14.01,2013-05-11 19:54:00,
2013-05-11 12:55:00,82.3,61.2,30.03,West,263,0.0,2.0,49,0.00,,---,0.00,805.00,VWS V14.01,2013-05-11 19:55:00,
2013-05-11 12:56:00,82.4,61.9,30.03,West,263,0.0,2.0,50,0.00,,---,0.00,831.00,VWS V14.01,2013-05-11 19:56:00,
2013-05-11 12:58:00,82.6,62.1,30.03,West,263,0.0,2.0,50,0.00,,---,0.00,817.00,VWS V14.01,2013-05-11 19:58:00,
2013-05-11 13:00:00,82.8,61.1,30.03,West,264,0.0,2.0,48,0.00,,---,0.00,803.00,VWS V14.01,2013-05-11 20:00:00,
2013-05-11 13:01:00,82.9,61.2,30.03,WNW,294,0.0,3.0,48,0.00,,---,0.00,795.00,VWS V14.01,2013-05-11 20:01:00,
2013-05-11 13:03:00,82.9,60.6,30.03,West,270,2.0,4.0,47,0.00,,---,0.00,795.00,VWS V14.01,2013-05-11 20:03:00,
2013-05-11 13:05:00,83.0,61.9,30.03,West,270,0.0,4.0,49,0.00,,---,0.00,800.00,VWS V14.01,2013-05-11 20:05:00,
2013-05-11 13:06:00,83.0,62.5,30.03,West,270,0.0,4.0,50,0.00,,---,0.00,831.00,VWS V14.01,2013-05-11 20:06:00,
2013-05-11 13:07:00,83.2,60.9,30.03,West,263,0.0,4.0,47,0.00,,---,0.00,835.00,VWS V14.01,2013-05-11 20:07:00,
2013-05-11 13:08:00,83.2,62.1,30.03,West,263,1.0,4.0,49,0.00,,---,0.00,791.00,VWS V14.01,2013-05-11 20:08:00,
2013-05-11 13:10:00,83.3,61.6,30.02,West,259,0.0,4.0,48,0.00,,---,0.00,809.00,VWS V14.01,2013-05-11 20:10:00,
2013-05-11 13:11:00,83.4,61.7,30.03,West,259,0.0,4.0,48,0.00,,---,0.00,842.00,VWS V14.01,2013-05-11 20:11:00,
2013-05-11 13:12:00,83.4,61.7,30.02,West,259,0.0,4.0,48,0.00,,---,0.00,842.00,VWS V14.01,2013-05-11 20:12:00,
2013-05-11 13:13:00,83.5,61.2,30.02,West,260,0.0,4.0,47,0.00,,---,0.00,742.00,VWS V14.01,2013-05-11 20:13:00,
2013-05-11 13:15:00,83.7,62.0,30.02,West,269,0.0,0.0,48,0.00,,---,0.00,826.00,VWS V14.01,2013-05-11 20:15:00,
2013-05-11 13:16:00,83.8,62.0,30.02,West,269,0.0,1.0,48,0.00,,---,0.00,854.00,VWS V14.01,2013-05-11 20:16:00,
2013-05-11 13:18:00,84.0,62.2,30.02,West,281,1.0,2.0,48,0.00,,---,0.00,854.00,VWS V14.01,2013-05-11 20:18:00,
2013-05-11 13:20:00,84.1,63.5,30.02,West,279,0.0,3.0,50,0.00,,---,0.00,865.00,VWS V14.01,2013-05-11 20:20:00,
2013-05-11 13:21:00,84.2,63.6,30.02,West,279,1.0,3.0,50,0.00,,---,0.00,854.00,VWS V14.01,2013-05-11 20:21:00,
2013-05-11 13:22:00,84.2,62.4,30.02,WSW,253,2.0,3.0,48,0.00,,---,0.00,865.00,VWS V14.01,2013-05-11 20:22:00,
2013-05-11 13:24:00,84.3,63.1,30.02,WSW,254,1.0,3.0,49,0.00,,---,0.00,870.00,VWS V14.01,2013-05-11 20:24:00,
2013-05-11 13:25:00,84.3,63.1,30.02,WSW,255,0.0,3.0,49,0.00,,---,0.00,882.00,VWS V14.01,2013-05-11 20:25:00,
2013-05-11 13:27:00,84.6,63.3,30.02,WSW,253,0.0,3.0,49,0.00,,---,0.00,898.00,VWS V14.01,2013-05-11 20:27:00,
2013-05-11 13:28:00,84.7,62.9,30.02,WSW,253,0.0,3.0,48,0.00,,---,0.00,895.00,VWS V14.01,2013-05-11 20:28:00,
2013-05-11 13:29:00,84.8,62.3,30.02,WSW,249,0.0,3.0,47,0.00,,---,0.00,904.00,VWS V14.01,2013-05-11 20:29:00,
2013-05-11 13:30:00,84.9,63.6,30.02,WSW,249,1.0,1.0,49,0.00,,---,0.00,904.00,VWS V14.01,2013-05-11 20:30:00,
2013-05-11 13:31:00,85.1,63.2,30.02,WNW,288,2.0,4.0,48,0.00,,---,0.00,849.00,VWS V14.01,2013-05-11 20:31:00,
2013-05-11 13:32:00,85.1,63.2,30.02,West,281,1.0,4.0,48,0.00,,---,0.00,838.00,VWS V14.01,2013-05-11 20:32:00,
2013-05-11 13:34:00,85.1,62.6,30.01,WNW,292,2.0,5.0,47,0.00,,---,0.00,789.00,VWS V14.01,2013-05-11 20:34:00,
2013-05-11 13:35:00,85.0,62.5,30.02,West,277,2.0,5.0,47,0.00,,---,0.00,791.00,VWS V14.01,2013-05-11 20:35:00,
2013-05-11 13:36:00,85.0,62.5,30.02,WSW,244,1.0,5.0,47,0.00,,---,0.00,830.00,VWS V14.01,2013-05-11 20:36:00,
2013-05-11 13:37:00,85.0,62.5,30.01,West,271,0.0,5.0,47,0.00,,---,0.00,856.00,VWS V14.01,2013-05-11 20:37:00,
2013-05-11 13:39:00,85.0,61.9,30.02,West,275,1.0,5.0,46,0.00,,---,0.00,918.00,VWS V14.01,2013-05-11 20:39:00,
2013-05-11 13:40:00,85.0,62.5,30.01,West,273,0.0,5.0,47,0.00,,---,0.00,933.00,VWS V14.01,2013-05-11 20:40:00,
2013-05-11 13:41:00,85.2,63.9,30.01,West,273,0.0,5.0,49,0.00,,---,0.00,923.00,VWS V14.01,2013-05-11 20:41:00,
2013-05-11 13:42:00,85.2,62.7,30.01,West,275,0.0,5.0,47,0.00,,---,0.00,911.00,VWS V14.01,2013-05-11 20:42:00,
2013-05-11 13:44:00,85.3,64.0,30.01,West,276,3.0,5.0,49,0.00,,---,0.00,895.00,VWS V14.01,2013-05-11 20:44:00,
2013-05-11 13:45:00,85.3,64.0,30.01,West,276,0.0,1.0,49,0.00,,---,0.00,865.00,VWS V14.01,2013-05-11 20:45:00,
2013-05-11 13:47:00,85.3,61.6,30.01,West,275,0.0,3.0,45,0.00,,---,0.00,846.00,VWS V14.01,2013-05-11 20:47:00,
2013-05-11 13:49:00,85.4,62.9,30.01,WSW,240,2.0,3.0,47,0.00,,---,0.00,854.00,VWS V14.01,2013-05-11 20:49:00,
2013-05-11 13:50:00,85.4,62.9,30.01,NW,312,4.0,4.0,47,0.00,,---,0.00,879.00,VWS V14.01,2013-05-11 20:50:00,
2013-05-11 13:51:00,85.4,63.5,30.01,West,279,0.0,4.0,48,0.00,,---,0.00,874.00,VWS V14.01,2013-05-11 20:51:00,
2013-05-11 13:52:00,85.4,62.3,30.01,West,279,0.0,4.0,46,0.00,,---,0.00,895.00,VWS V14.01,2013-05-11 20:52:00,
2013-05-11 13:54:00,85.6,61.8,30.01,WSW,257,0.0,4.0,45,0.00,,---,0.00,904.00,VWS V14.01,2013-05-11 20:54:00,
2013-05-11 13:55:00,85.7,63.2,30.01,WSW,257,0.0,4.0,47,0.00,,---,0.00,882.00,VWS V14.01,2013-05-11 20:55:00,
2013-05-11 13:57:00,86.0,62.8,30.01,West,274,0.0,4.0,46,0.00,,---,0.00,888.00,VWS V14.01,2013-05-11 20:57:00,
2013-05-11 13:59:00,86.2,62.4,30.01,WSW,253,2.0,4.0,45,0.00,,---,0.00,844.00,VWS V14.01,2013-05-11 20:59:00,
2013-05-11 14:00:00,86.2,62.4,30.01,West,269,2.0,2.0,45,0.00,,---,0.00,777.00,VWS V14.01,2013-05-11 21:00:00,
2013-05-11 14:02:00,86.1,62.3,30.01,West,269,0.0,2.0,45,0.00,,---,0.00,831.00,VWS V14.01,2013-05-11 21:02:00,
2013-05-11 14:05:00,86.0,62.2,30.01,West,273,0.0,2.0,45,0.00,,---,0.00,902.00,VWS V14.01,2013-05-11 21:05:00,
2013-05-11 14:07:00,86.0,61.6,30.01,SSW,213,1.0,2.0,44,0.00,,---,0.00,870.00,VWS V14.01,2013-05-11 21:07:00,
2013-05-11 14:08:00,86.0,61.6,30.01,SSW,213,1.0,2.0,44,0.00,,---,0.00,793.00,VWS V14.01,2013-05-11 21:08:00,
2013-05-11 14:10:00,86.0,60.3,30.01,WNW,284,0.0,3.0,42,0.00,,---,0.00,905.00,VWS V14.01,2013-05-11 21:10:00,
2013-05-11 14:13:00,86.3,61.8,30.01,West,269,0.0,3.0,44,0.00,,---,0.00,902.00,VWS V14.01,2013-05-11 21:13:00,
2013-05-11 14:15:00,86.4,61.3,30.01,West,275,1.0,1.0,43,0.00,,---,0.00,893.00,VWS V14.01,2013-05-11 21:15:00,
2013-05-11 14:18:00,86.4,63.2,30.01,West,266,0.0,1.0,46,0.00,,---,0.00,882.00,VWS V14.01,2013-05-11 21:18:00,
2013-05-11 14:20:00,86.5,60.7,30.01,SW,236,0.0,5.0,42,0.00,,---,0.00,872.00,VWS V14.01,2013-05-11 21:20:00,
2013-05-11 14:23:00,86.7,61.5,30.01,WSW,238,0.0,5.0,43,0.00,,---,0.00,867.00,VWS V14.01,2013-05-11 21:23:00,
2013-05-11 14:25:00,87.0,61.8,30.01,West,264,0.0,5.0,43,0.00,,---,0.00,860.00,VWS V14.01,2013-05-11 21:25:00,
2013-05-11 14:26:00,87.1,61.2,30.01,SW,232,0.0,5.0,42,0.00,,---,0.00,863.00,VWS V14.01,2013-05-11 21:26:00,
2013-05-11 14:28:00,87.2,61.3,30.00,WSW,244,2.0,5.0,42,0.00,,---,0.00,854.00,VWS V14.01,2013-05-11 21:28:00,
2013-05-11 14:29:00,87.3,62.7,30.01,WSW,248,0.0,5.0,44,0.00,,---,0.00,838.00,VWS V14.01,2013-05-11 21:29:00,
2013-05-11 14:30:00,87.3,60.8,30.01,WSW,254,4.0,7.0,41,0.00,,---,0.00,838.00,VWS V14.01,2013-05-11 21:30:00,
2013-05-11 14:32:00,87.2,61.3,30.01,West,268,1.0,7.0,42,0.00,,---,0.00,838.00,VWS V14.01,2013-05-11 21:32:00,
2013-05-11 14:33:00,87.2,60.7,30.00,West,268,0.0,7.0,41,0.00,,---,0.00,842.00,VWS V14.01,2013-05-11 21:33:00,
2013-05-11 14:34:00,87.2,60.7,30.00,West,274,0.0,7.0,41,0.00,,---,0.00,826.00,VWS V14.01,2013-05-11 21:34:00,
2013-05-11 14:36:00,87.2,62.0,30.00,NW,317,0.0,7.0,43,0.00,,---,0.00,824.00,VWS V14.01,2013-05-11 21:36:00,
2013-05-11 14:37:00,87.3,60.8,30.00,WNW,284,1.0,7.0,41,0.00,,---,0.00,830.00,VWS V14.01,2013-05-11 21:37:00,
2013-05-11 14:39:00,87.3,60.8,30.00,West,281,1.0,7.0,41,0.00,,---,0.00,824.00,VWS V14.01,2013-05-11 21:39:00,
2013-05-11 14:40:00,87.4,60.8,30.00,West,278,0.0,7.0,41,0.00,,---,0.00,828.00,VWS V14.01,2013-05-11 21:40:00,
2013-05-11 14:41:00,87.4,61.5,30.00,West,278,0.0,7.0,42,0.00,,---,0.00,828.00,VWS V14.01,2013-05-11 21:41:00,
2013-05-11 14:42:00,87.5,60.9,30.00,WNW,302,2.0,7.0,41,0.00,,---,0.00,831.00,VWS V14.01,2013-05-11 21:42:00,
2013-05-11 14:44:00,87.5,60.9,30.00,WSW,251,0.0,7.0,41,0.00,,---,0.00,837.00,VWS V14.01,2013-05-11 21:44:00,
2013-05-11 14:45:00,87.5,61.6,30.00,SW,236,4.0,4.0,42,0.00,,---,0.00,807.00,VWS V14.01,2013-05-11 21:45:00,
2013-05-11 14:46:00,87.4,60.1,30.00,SW,234,0.0,4.0,40,0.00,,---,0.00,807.00,VWS V14.01,2013-05-11 21:46:00,
2013-05-11 14:47:00,87.4,62.2,30.00,SW,234,1.0,4.0,43,0.00,,---,0.00,824.00,VWS V14.01,2013-05-11 21:47:00,
2013-05-11 14:49:00,87.5,62.9,30.00,West,271,0.0,4.0,44,0.00,,---,0.00,777.00,VWS V14.01,2013-05-11 21:49:00,
2013-05-11 14:50:00,87.6,63.0,30.00,West,271,0.0,4.0,44,0.00,,---,0.00,758.00,VWS V14.01,2013-05-11 21:50:00,
2013-05-11 14:51:00,87.8,61.9,30.00,WSW,243,0.0,4.0,42,0.00,,---,0.00,752.00,VWS V14.01,2013-05-11 21:51:00,
2013-05-11 14:53:00,87.9,61.3,30.00,WSW,251,0.0,4.0,41,0.00,,---,0.00,698.00,VWS V14.01,2013-05-11 21:53:00,
2013-05-11 14:54:00,88.1,62.1,30.00,SW,224,2.0,4.0,42,0.00,,---,0.00,693.00,VWS V14.01,2013-05-11 21:54:00,
2013-05-11 14:55:00,88.1,61.5,29.99,WSW,258,0.0,4.0,41,0.00,,---,0.00,768.00,VWS V14.01,2013-05-11 21:55:00,
2013-05-11 14:56:00,88.1,61.5,30.00,WSW,258,0.0,4.0,41,0.00,,---,0.00,758.00,VWS V14.01,2013-05-11 21:56:00,
2013-05-11 14:58:00,88.1,60.8,30.00,WSW,258,1.0,4.0,40,0.00,,---,0.00,798.00,VWS V14.01,2013-05-11 21:58:00,
2013-05-11 15:00:00,88.2,61.5,29.99,WSW,258,0.0,4.0,41,0.00,,---,0.00,807.00,VWS V14.01,2013-05-11 22:00:00,
2013-05-11 15:01:00,88.3,61.6,29.99,WSW,246,3.0,5.0,41,0.00,,---,0.00,802.00,VWS V14.01,2013-05-11 22:01:00,
2013-05-11 15:03:00,88.3,60.9,29.99,WSW,239,0.0,5.0,40,0.00,,---,0.00,728.00,VWS V14.01,2013-05-11 22:03:00,
2013-05-11 15:05:00,88.4,61.7,29.99,West,260,0.0,5.0,41,0.00,,---,0.00,638.00,VWS V14.01,2013-05-11 22:05:00,
2013-05-11 15:06:00,88.4,61.0,29.99,West,263,2.0,5.0,40,0.00,,---,0.00,584.00,VWS V14.01,2013-05-11 22:06:00,
2013-05-11 15:07:00,88.4,61.0,29.99,West,263,2.0,5.0,40,0.00,,---,0.00,508.00,VWS V14.01,2013-05-11 22:07:00,
2013-05-11 15:09:00,88.3,60.2,29.99,West,265,0.0,5.0,39,0.00,,---,0.00,652.00,VWS V14.01,2013-05-11 22:09:00,
2013-05-11 15:10:00,88.2,60.1,29.99,WNW,283,0.0,5.0,39,0.00,,---,0.00,710.00,VWS V14.01,2013-05-11 22:10:00,
2013-05-11 15:12:00,88.3,61.6,29.99,WNW,283,1.0,5.0,41,0.00,,---,0.00,793.00,VWS V14.01,2013-05-11 22:12:00,
2013-05-11 15:13:00,88.4,61.0,29.99,WNW,284,0.0,5.0,40,0.00,,---,0.00,807.00,VWS V14.01,2013-05-11 22:13:00,
2013-05-11 15:14:00,88.6,61.2,29.99,WSW,242,2.0,5.0,40,0.00,,---,0.00,835.00,VWS V14.01,2013-05-11 22:14:00,
2013-05-11 15:16:00,88.7,61.3,29.99,West,261,1.0,2.0,40,0.00,,---,0.00,840.00,VWS V14.01,2013-05-11 22:16:00,
2013-05-11 15:17:00,88.8,62.8,29.99,West,261,1.0,2.0,42,0.00,,---,0.00,795.00,VWS V14.01,2013-05-11 22:17:00,
2013-05-11 15:18:00,88.9,62.2,29.99,West,261,0.0,2.0,41,0.00,,---,0.00,793.00,VWS V14.01,2013-05-11 22:18:00,
2013-05-11 15:20:00,89.1,62.4,29.99,West,261,1.0,2.0,41,0.00,,---,0.00,780.00,VWS V14.01,2013-05-11 22:20:00,
2013-05-11 15:21:00,89.2,62.4,29.99,WSW,252,1.0,2.0,41,0.00,,---,0.00,737.00,VWS V14.01,2013-05-11 22:21:00,
2013-05-11 15:22:00,89.2,63.1,29.99,WSW,258,1.0,2.0,42,0.00,,---,0.00,707.00,VWS V14.01,2013-05-11 22:22:00,
2013-05-11 15:23:00,89.3,61.8,29.99,West,262,1.0,2.0,40,0.00,,---,0.00,738.00,VWS V14.01,2013-05-11 22:23:00,
2013-05-11 15:24:00,89.3,61.8,29.99,West,266,0.0,2.0,40,0.00,,---,0.00,724.00,VWS V14.01,2013-05-11 22:24:00,
2013-05-11 15:25:00,89.2,61.8,29.99,West,266,0.0,2.0,40,0.00,,---,0.00,740.00,VWS V14.01,2013-05-11 22:25:00,
2013-05-11 15:26:00,89.2,62.4,29.98,West,266,1.0,2.0,41,0.00,,---,0.00,708.00,VWS V14.01,2013-05-11 22:26:00,
2013-05-11 15:28:00,89.2,61.8,29.98,WSW,250,3.0,4.0,40,0.00,,---,0.00,737.00,VWS V14.01,2013-05-11 22:28:00,
2013-05-11 15:29:00,89.1,61.7,29.98,SW,236,1.0,4.0,40,0.00,,---,0.00,749.00,VWS V14.01,2013-05-11 22:29:00,
2013-05-11 15:30:00,89.1,60.9,29.98,SW,236,1.0,1.0,39,0.00,,---,0.00,703.00,VWS V14.01,2013-05-11 22:30:00,
2013-05-11 15:31:00,89.1,61.7,29.98,WSW,248,2.0,2.0,40,0.00,,---,0.00,657.00,VWS V14.01,2013-05-11 22:31:00,
2013-05-11 15:33:00,89.0,62.3,29.98,WSW,252,0.0,2.0,41,0.00,,---,0.00,657.00,VWS V14.01,2013-05-11 22:33:00,
2013-05-11 15:34:00,89.1,60.9,29.98,WSW,252,1.0,2.0,39,0.00,,---,0.00,721.00,VWS V14.01,2013-05-11 22:34:00,
2013-05-11 15:36:00,89.2,60.3,29.98,SSW,207,1.0,3.0,38,0.00,,---,0.00,707.00,VWS V14.01,2013-05-11 22:36:00,
2013-05-11 15:37:00,89.2,61.0,29.98,SSW,210,0.0,3.0,39,0.00,,---,0.00,707.00,VWS V14.01,2013-05-11 22:37:00,
2013-05-11 15:38:00,89.3,60.4,29.98,SW,217,1.0,3.0,38,0.00,,---,0.00,404.00,VWS V14.01,2013-05-11 22:38:00,
2013-05-11 15:39:00,89.4,61.9,29.97,SW,217,0.0,3.0,40,0.00,,---,0.00,404.00,VWS V14.01,2013-05-11 22:39:00,
2013-05-11 15:40:00,89.4,61.9,29.97,SW,217,0.0,3.0,40,0.00,,---,0.00,315.00,VWS V14.01,2013-05-11 22:40:00,
2013-05-11 15:42:00,89.5,59.8,29.98,WNW,290,1.0,3.0,37,0.00,,---,0.00,613.00,VWS V14.01,2013-05-11 22:42:00,
2013-05-11 15:43:00,89.5,61.3,29.97,West,271,1.0,3.0,39,0.00,,---,0.00,619.00,VWS V14.01,2013-05-11 22:43:00,
2013-05-11 15:44:00,89.5,60.6,29.97,West,271,1.0,3.0,38,0.00,,---,0.00,571.00,VWS V14.01,2013-05-11 22:44:00,
2013-05-11 15:45:00,89.5,62.0,29.97,West,274,2.0,3.0,40,0.00,,---,0.00,610.00,VWS V14.01,2013-05-11 22:45:00,
2013-05-11 15:47:00,89.3,60.4,29.97,West,274,0.0,3.0,38,0.00,,---,0.00,540.00,VWS V14.01,2013-05-11 22:47:00,
2013-05-11 15:48:00,89.3,60.4,29.97,West,274,0.0,3.0,38,0.00,,---,0.00,668.00,VWS V14.01,2013-05-11 22:48:00,
2013-05-11 15:49:00,89.3,61.1,29.97,West,274,1.0,3.0,39,0.00,,---,0.00,705.00,VWS V14.01,2013-05-11 22:49:00,
2013-05-11 15:50:00,89.3,61.1,29.97,West,274,0.0,3.0,39,0.00,,---,0.00,649.00,VWS V14.01,2013-05-11 22:50:00,
2013-05-11 15:52:00,89.5,60.6,29.97,West,274,1.0,3.0,38,0.00,,---,0.00,754.00,VWS V14.01,2013-05-11 22:52:00,
2013-05-11 15:53:00,89.6,60.7,29.97,West,274,1.0,3.0,38,0.00,,---,0.00,745.00,VWS V14.01,2013-05-11 22:53:00,
2013-05-11 15:54:00,89.9,62.4,29.97,West,274,0.0,3.0,40,0.00,,---,0.00,756.00,VWS V14.01,2013-05-11 22:54:00,
2013-05-11 15:56:00,90.0,61.0,29.97,West,274,0.0,3.0,38,0.00,,---,0.00,737.00,VWS V14.01,2013-05-11 22:56:00,
2013-05-11 15:57:00,90.3,61.3,29.97,West,274,0.0,3.0,38,0.00,,---,0.00,705.00,VWS V14.01,2013-05-11 22:57:00,
2013-05-11 15:58:00,90.3,61.3,29.97,West,273,3.0,3.0,38,0.00,,---,0.00,719.00,VWS V14.01,2013-05-11 22:58:00,
2013-05-11 15:59:00,90.4,60.6,29.97,West,273,0.0,3.0,37,0.00,,---,0.00,705.00,VWS V14.01,2013-05-11 22:59:00,
2013-05-11 16:00:00,90.4,60.6,29.97,West,273,0.0,2.0,37,0.00,,---,0.00,715.00,VWS V14.01,2013-05-11 23:00:00,
2013-05-11 16:01:00,90.6,60.8,29.97,West,273,0.0,2.0,37,0.00,,---,0.00,737.00,VWS V14.01,2013-05-11 23:01:00,
2013-05-11 16:03:00,90.8,61.0,29.97,West,273,0.0,2.0,37,0.00,,---,0.00,721.00,VWS V14.01,2013-05-11 23:03:00,
2013-05-11 16:04:00,90.9,61.0,29.97,West,273,0.0,2.0,37,0.00,,---,0.00,722.00,VWS V14.01,2013-05-11 23:04:00,
2013-05-11 16:05:00,91.0,62.6,29.97,West,273,0.0,2.0,39,0.00,,---,0.00,710.00,VWS V14.01,2013-05-11 23:05:00,
2013-05-11 16:07:00,91.2,60.5,29.97,WSW,247,0.0,3.0,36,0.00,,---,0.00,693.00,VWS V14.01,2013-05-11 23:07:00,
2013-05-11 16:08:00,91.2,59.8,29.96,WSW,247,1.0,3.0,35,0.00,,---,0.00,687.00,VWS V14.01,2013-05-11 23:08:00,
2013-05-11 16:09:00,91.3,59.8,29.96,WNW,300,0.0,3.0,35,0.00,,---,0.00,661.00,VWS V14.01,2013-05-11 23:09:00,
2013-05-11 16:10:00,91.3,60.6,29.96,WNW,300,0.0,3.0,36,0.00,,---,0.00,626.00,VWS V14.01,2013-05-11 23:10:00,
2013-05-11 16:12:00,91.5,60.0,29.96,WNW,300,0.0,3.0,35,0.00,,---,0.00,619.00,VWS V14.01,2013-05-11 23:12:00,
2013-05-11 16:13:00,91.6,61.7,29.96,WNW,298,1.0,3.0,37,0.00,,---,0.00,643.00,VWS V14.01,2013-05-11 23:13:00,
2013-05-11 16:14:00,91.6,60.1,29.96,WNW,300,0.0,4.0,35,0.00,,---,0.00,647.00,VWS V14.01,2013-05-11 23:14:00,
2013-05-11 16:15:00,91.7,58.5,29.96,WSW,245,0.0,2.0,33,0.00,,---,0.00,619.00,VWS V14.01,2013-05-11 23:15:00,
2013-05-11 16:17:00,91.8,59.5,29.96,WSW,244,0.0,2.0,34,0.00,,---,0.00,622.00,VWS V14.01,2013-05-11 23:17:00,
2013-05-11 16:18:00,91.9,60.4,29.96,WSW,247,0.0,2.0,35,0.00,,---,0.00,603.00,VWS V14.01,2013-05-11 23:18:00,
2013-05-11 16:19:00,92.0,60.5,29.96,WSW,247,0.0,2.0,35,0.00,,---,0.00,591.00,VWS V14.01,2013-05-11 23:19:00,
2013-05-11 16:20:00,92.1,58.9,29.96,WSW,247,0.0,2.0,33,0.00,,---,0.00,577.00,VWS V14.01,2013-05-11 23:20:00,
2013-05-11 16:21:00,92.2,59.8,29.96,WSW,247,0.0,2.0,34,0.00,,---,0.00,555.00,VWS V14.01,2013-05-11 23:21:00,
2013-05-11 16:22:00,92.3,59.9,29.96,SW,221,0.0,2.0,34,0.00,,---,0.00,561.00,VWS V14.01,2013-05-11 23:22:00,
2013-05-11 16:23:00,92.3,59.1,29.96,SW,223,0.0,2.0,33,0.00,,---,0.00,573.00,VWS V14.01,2013-05-11 23:23:00,
2013-05-11 16:24:00,92.3,59.1,29.96,SW,223,0.0,2.0,33,0.00,,---,0.00,582.00,VWS V14.01,2013-05-11 23:24:00,
2013-05-11 16:25:00,92.2,59.8,29.96,West,273,0.0,4.0,34,0.00,,---,0.00,573.00,VWS V14.01,2013-05-11 23:25:00,
2013-05-11 16:26:00,92.2,58.1,29.96,West,273,0.0,4.0,32,0.00,,---,0.00,563.00,VWS V14.01,2013-05-11 23:26:00,
2013-05-11 16:27:00,92.1,58.9,29.96,West,281,0.0,4.0,33,0.00,,---,0.00,566.00,VWS V14.01,2013-05-11 23:27:00,
2013-05-11 16:29:00,92.2,60.6,29.96,West,281,0.0,4.0,35,0.00,,---,0.00,540.00,VWS V14.01,2013-05-11 23:29:00,
2013-05-11 16:30:00,92.3,58.2,29.96,West,281,0.0,0.0,32,0.00,,---,0.00,570.00,VWS V14.01,2013-05-11 23:30:00,
2013-05-11 16:31:00,92.4,60.0,29.96,West,271,0.0,2.0,34,0.00,,---,0.00,571.00,VWS V14.01,2013-05-11 23:31:00,
2013-05-11 16:32:00,92.4,59.2,29.96,West,271,0.0,2.0,33,0.00,,---,0.00,554.00,VWS V14.01,2013-05-11 23:32:00,
2013-05-11 16:34:00,92.5,58.4,29.96,West,271,0.0,2.0,32,0.00,,---,0.00,512.00,VWS V14.01,2013-05-11 23:34:00,
2013-05-11 16:35:00,92.5,60.1,29.96,West,271,0.0,2.0,34,0.00,,---,0.00,504.00,VWS V14.01,2013-05-11 23:35:00,
2013-05-11 16:36:00,92.4,59.2,29.96,West,271,0.0,2.0,33,0.00,,---,0.00,496.00,VWS V14.01,2013-05-11 23:36:00,
2013-05-11 16:37:00,92.4,58.3,29.96,West,271,0.0,2.0,32,0.00,,---,0.00,496.00,VWS V14.01,2013-05-11 23:37:00,
2013-05-11 16:39:00,92.1,58.9,29.96,WSW,258,0.0,5.0,33,0.00,,---,0.00,438.00,VWS V14.01,2013-05-11 23:39:00,
2013-05-11 16:40:00,92.1,58.9,29.96,WSW,258,0.0,5.0,33,0.00,,---,0.00,429.00,VWS V14.01,2013-05-11 23:40:00,
2013-05-11 16:41:00,92.0,59.6,29.96,WSW,258,0.0,5.0,34,0.00,,---,0.00,443.00,VWS V14.01,2013-05-11 23:41:00,
2013-05-11 16:42:00,91.9,57.0,29.96,WNW,293,1.0,5.0,31,0.00,,---,0.00,432.00,VWS V14.01,2013-05-11 23:42:00,
2013-05-11 16:44:00,91.9,59.5,29.96,WNW,293,0.0,5.0,34,0.00,,---,0.00,424.00,VWS V14.01,2013-05-11 23:44:00,
2013-05-11 16:45:00,91.9,58.7,29.96,WNW,293,0.0,0.0,33,0.00,,---,0.00,429.00,VWS V14.01,2013-05-11 23:45:00,
2013-05-11 16:46:00,91.9,57.9,29.96,West,275,0.0,2.0,32,0.00,,---,0.00,441.00,VWS V14.01,2013-05-11 23:46:00,
2013-05-11 16:47:00,91.9,58.7,29.96,West,275,0.0,2.0,33,0.00,,---,0.00,439.00,VWS V14.01,2013-05-11 23:47:00,
2013-05-11 16:48:00,91.9,58.7,29.95,West,275,0.0,2.0,33,0.00,,---,0.00,439.00,VWS V14.01,2013-05-11 23:48:00,
2013-05-11 16:49:00,91.8,57.8,29.95,West,275,0.0,2.0,32,0.00,,---,0.00,403.00,VWS V14.01,2013-05-11 23:49:00,
2013-05-11 16:51:00,91.8,58.6,29.95,West,275,0.0,2.0,33,0.00,,---,0.00,374.00,VWS V14.01,2013-05-11 23:51:00,
2013-05-11 16:52:00,91.7,58.5,29.95,West,275,0.0,2.0,33,0.00,,---,0.00,330.00,VWS V14.01,2013-05-11 23:52:00,
2013-05-11 16:53:00,91.7,57.7,29.95,West,275,0.0,2.0,32,0.00,,---,0.00,311.00,VWS V14.01,2013-05-11 23:53:00,
2013-05-11 16:55:00,91.7,58.5,29.95,West,275,0.0,2.0,33,0.00,,---,0.00,287.00,VWS V14.01,2013-05-11 23:55:00,
2013-05-11 16:56:00,91.7,59.4,29.95,West,275,0.0,2.0,34,0.00,,---,0.00,278.00,VWS V14.01,2013-05-11 23:56:00,
2013-05-11 16:58:00,91.5,59.2,29.95,West,275,0.0,2.0,34,0.00,,---,0.00,278.00,VWS V14.01,2013-05-11 23:58:00,
2013-05-11 16:59:00,91.5,59.2,29.95,West,275,0.0,2.0,34,0.00,,---,0.00,272.00,VWS V14.01,2013-05-11 23:59:00,
2013-05-11 17:00:00,91.5,58.4,29.95,West,275,0.0,2.0,33,0.00,,---,0.00,258.00,VWS V14.01,2013-05-12 00:00:00,
2013-05-11 17:01:00,91.5,59.2,29.95,NE,48,1.0,1.0,34,0.00,,---,0.00,253.00,VWS V14.01,2013-05-12 00:01:00,
2013-05-11 17:03:00,91.4,59.9,29.95,NNW,341,0.0,1.0,35,0.00,,---,0.00,330.00,VWS V14.01,2013-05-12 00:03:00,
2013-05-11 17:04:00,91.4,60.7,29.95,NNW,341,0.0,1.0,36,0.00,,---,0.00,330.00,VWS V14.01,2013-05-12 00:04:00,
2013-05-11 17:05:00,91.1,62.0,29.95,NW,306,0.0,1.0,38,0.00,,---,0.00,360.00,VWS V14.01,2013-05-12 00:05:00,
2013-05-11 17:06:00,91.1,59.7,29.95,NW,306,0.0,1.0,35,0.00,,---,0.00,367.00,VWS V14.01,2013-05-12 00:06:00,
2013-05-11 17:07:00,91.1,59.7,29.95,NW,306,0.0,1.0,35,0.00,,---,0.00,367.00,VWS V14.01,2013-05-12 00:07:00,
2013-05-11 17:09:00,90.8,58.6,29.95,NW,305,1.0,1.0,34,0.00,,---,0.00,374.00,VWS V14.01,2013-05-12 00:09:00,
2013-05-11 17:11:00,90.7,59.3,29.96,WNW,298,0.0,1.0,35,0.00,,---,0.00,367.00,VWS V14.01,2013-05-12 00:11:00,
2013-05-11 17:12:00,90.6,58.4,29.96,NW,304,0.0,1.0,34,0.00,,---,0.00,353.00,VWS V14.01,2013-05-12 00:12:00,
2013-05-11 17:14:00,90.5,55.8,29.95,NW,304,0.0,1.0,31,0.00,,---,0.00,306.00,VWS V14.01,2013-05-12 00:14:00,
2013-05-11 17:15:00,90.5,55.8,29.95,NW,304,1.0,1.0,31,0.00,,---,0.00,309.00,VWS V14.01,2013-05-12 00:15:00,
2013-05-11 17:16:00,90.5,58.3,29.96,NW,304,0.0,0.0,34,0.00,,---,0.00,315.00,VWS V14.01,2013-05-12 00:16:00,
2013-05-11 17:17:00,90.5,58.3,29.96,NW,304,0.0,1.0,34,0.00,,---,0.00,323.00,VWS V14.01,2013-05-12 00:17:00,
2013-05-11 17:19:00,90.3,57.3,29.96,NW,304,0.0,1.0,33,0.00,,---,0.00,279.00,VWS V14.01,2013-05-12 00:19:00,
2013-05-11 17:21:00,90.3,55.6,29.96,NW,304,0.0,1.0,31,0.00,,---,0.00,311.00,VWS V14.01,2013-05-12 00:21:00,
2013-05-11 17:22:00,90.2,57.2,29.96,NW,304,0.0,1.0,33,0.00,,---,0.00,274.00,VWS V14.01,2013-05-12 00:22:00,
2013-05-11 17:25:00,90.1,56.3,29.96,NW,304,0.0,1.0,32,0.00,,---,0.00,223.00,VWS V14.01,2013-05-12 00:25:00,
2013-05-11 17:26:00,90.1,57.2,29.96,NW,304,0.0,1.0,33,0.00,,---,0.00,234.00,VWS V14.01,2013-05-12 00:26:00,
2013-05-11 17:27:00,90.0,57.1,29.96,NW,304,0.0,1.0,33,0.00,,---,0.00,246.00,VWS V14.01,2013-05-12 00:27:00,
2013-05-11 17:30:00,89.8,57.7,29.96,NW,304,0.0,0.0,34,0.00,,---,0.00,248.00,VWS V14.01,2013-05-12 00:30:00,
2013-05-11 17:31:00,89.7,57.6,29.96,NW,304,0.0,0.0,34,0.00,,---,0.00,279.00,VWS V14.01,2013-05-12 00:31:00,
2013-05-11 17:33:00,89.5,54.9,29.96,NW,304,0.0,0.0,31,0.00,,---,0.00,288.00,VWS V14.01,2013-05-12 00:33:00,
2013-05-11 17:35:00,89.5,53.1,29.96,NW,304,0.0,0.0,29,0.00,,---,0.00,308.00,VWS V14.01,2013-05-12 00:35:00,
2013-05-11 17:36:00,89.5,55.8,29.96,NW,304,0.0,0.0,32,0.00,,---,0.00,295.00,VWS V14.01,2013-05-12 00:36:00,
2013-05-11 17:37:00,89.5,55.8,29.96,NW,304,0.0,0.0,32,0.00,,---,0.00,295.00,VWS V14.01,2013-05-12 00:37:00,
2013-05-11 17:38:00,89.5,56.6,29.96,NW,304,0.0,1.0,33,0.00,,---,0.00,316.00,VWS V14.01,2013-05-12 00:38:00,
2013-05-11 17:40:00,89.5,59.0,29.96,NW,304,0.0,1.0,36,0.00,,---,0.00,318.00,VWS V14.01,2013-05-12 00:40:00,
2013-05-11 17:41:00,89.5,57.5,29.96,NW,304,1.0,1.0,34,0.00,,---,0.00,299.00,VWS V14.01,2013-05-12 00:41:00,
2013-05-11 17:42:00,89.4,59.0,29.96,NW,304,0.0,1.0,36,0.00,,---,0.00,285.00,VWS V14.01,2013-05-12 00:42:00,
2013-05-11 17:43:00,89.3,58.1,29.96,NW,304,0.0,1.0,35,0.00,,---,0.00,258.00,VWS V14.01,2013-05-12 00:43:00,
2013-05-11 17:45:00,89.0,57.8,29.96,NW,304,0.0,1.0,35,0.00,,---,0.00,248.00,VWS V14.01,2013-05-12 00:45:00,
2013-05-11 17:46:00,88.9,57.7,29.96,NNW,332,0.0,1.0,35,0.00,,---,0.00,227.00,VWS V14.01,2013-05-12 00:46:00,
2013-05-11 17:47:00,88.9,58.5,29.96,NNW,332,0.0,1.0,36,0.00,,---,0.00,227.00,VWS V14.01,2013-05-12 00:47:00,
2013-05-11 17:48:00,88.8,57.7,29.96,WNW,302,3.0,3.0,35,0.00,,---,0.00,220.00,VWS V14.01,2013-05-12 00:48:00,
2013-05-11 17:50:00,88.4,54.0,29.96,WSW,238,2.0,8.0,31,0.00,,---,0.00,206.00,VWS V14.01,2013-05-12 00:50:00,
2013-05-11 17:52:00,88.1,53.7,29.97,WSW,258,0.0,8.0,31,0.00,,---,0.00,195.00,VWS V14.01,2013-05-12 00:52:00,
2013-05-11 17:53:00,88.1,53.7,29.97,WSW,258,0.0,8.0,31,0.00,,---,0.00,207.00,VWS V14.01,2013-05-12 00:53:00,
2013-05-11 17:56:00,87.9,54.4,29.97,West,281,3.0,8.0,32,0.00,,---,0.00,200.00,VWS V14.01,2013-05-12 00:56:00,
2013-05-11 17:57:00,87.8,55.2,29.96,WNW,288,0.0,8.0,33,0.00,,---,0.00,199.00,VWS V14.01,2013-05-12 00:57:00,
2013-05-11 17:58:00,87.7,53.3,29.96,SW,224,3.0,8.0,31,0.00,,---,0.00,199.00,VWS V14.01,2013-05-12 00:58:00,
2013-05-11 17:59:00,87.6,53.3,29.96,SSW,206,3.0,8.0,31,0.00,,---,0.00,178.00,VWS V14.01,2013-05-12 00:59:00,
2013-05-11 18:01:00,87.4,55.6,29.96,SSW,213,0.0,0.0,34,0.00,,---,0.00,167.00,VWS V14.01,2013-05-12 01:01:00,
2013-05-11 18:02:00,87.3,56.3,29.96,SW,219,0.0,2.0,35,0.00,,---,0.00,165.00,VWS V14.01,2013-05-12 01:02:00,
2013-05-11 18:03:00,87.2,56.2,29.96,NE,38,0.0,3.0,35,0.00,,---,0.00,158.00,VWS V14.01,2013-05-12 01:03:00,
2013-05-11 18:04:00,87.1,56.2,29.96,SW,225,5.0,5.0,35,0.00,,---,0.00,158.00,VWS V14.01,2013-05-12 01:04:00,
2013-05-11 18:06:00,86.9,56.0,29.97,SW,229,1.0,5.0,35,0.00,,---,0.00,146.00,VWS V14.01,2013-05-12 01:06:00,
2013-05-11 18:07:00,86.8,55.9,29.96,NNW,337,0.0,5.0,35,0.00,,---,0.00,141.00,VWS V14.01,2013-05-12 01:07:00,
2013-05-11 18:08:00,86.6,54.1,29.97,SW,227,0.0,5.0,33,0.00,,---,0.00,137.00,VWS V14.01,2013-05-12 01:08:00,
2013-05-11 18:09:00,86.6,54.1,29.97,SW,227,0.0,5.0,33,0.00,,---,0.00,137.00,VWS V14.01,2013-05-12 01:09:00,
2013-05-11 18:11:00,86.4,53.9,29.96,SW,227,0.0,5.0,33,0.00,,---,0.00,135.00,VWS V14.01,2013-05-12 01:11:00,
2013-05-11 18:12:00,86.4,55.5,29.96,SW,229,0.0,5.0,35,0.00,,---,0.00,135.00,VWS V14.01,2013-05-12 01:12:00,
2013-05-11 18:14:00,86.3,55.5,29.96,SW,229,0.0,5.0,35,0.00,,---,0.00,135.00,VWS V14.01,2013-05-12 01:14:00,
2013-05-11 18:16:00,86.1,56.0,29.96,SW,234,0.0,0.0,36,0.00,,---,0.00,132.00,VWS V14.01,2013-05-12 01:16:00,
2013-05-11 18:17:00,86.1,55.3,29.96,SW,234,0.0,0.0,35,0.00,,---,0.00,132.00,VWS V14.01,2013-05-12 01:17:00,
2013-05-11 18:19:00,86.0,56.0,29.96,SW,234,0.0,0.0,36,0.00,,---,0.00,130.00,VWS V14.01,2013-05-12 01:19:00,
2013-05-11 18:21:00,85.8,54.2,29.97,SW,234,0.0,1.0,34,0.00,,---,0.00,128.00,VWS V14.01,2013-05-12 01:21:00,
2013-05-11 18:23:00,85.7,52.5,29.97,WNW,286,0.0,1.0,32,0.00,,---,0.00,127.00,VWS V14.01,2013-05-12 01:23:00,
2013-05-11 18:24:00,85.6,54.0,29.97,WNW,286,0.0,1.0,34,0.00,,---,0.00,125.00,VWS V14.01,2013-05-12 01:24:00,
2013-05-11 18:27:00,85.4,53.9,29.97,North,5,0.0,3.0,34,0.00,,---,0.00,151.00,VWS V14.01,2013-05-12 01:27:00,
2013-05-11 18:28:00,85.3,53.8,29.96,NNW,336,1.0,3.0,34,0.00,,---,0.00,148.00,VWS V14.01,2013-05-12 01:28:00,
2013-05-11 18:29:00,85.3,53.0,29.96,North,5,1.0,3.0,33,0.00,,---,0.00,144.00,VWS V14.01,2013-05-12 01:29:00,
2013-05-11 18:30:00,85.2,52.9,29.96,North,355,0.0,3.0,33,0.00,,---,0.00,156.00,VWS V14.01,2013-05-12 01:30:00,
2013-05-11 18:32:00,85.2,52.0,29.96,North,11,0.0,1.0,32,0.00,,---,0.00,134.00,VWS V14.01,2013-05-12 01:32:00,
2013-05-11 18:33:00,85.1,52.8,29.96,North,11,0.0,1.0,33,0.00,,---,0.00,135.00,VWS V14.01,2013-05-12 01:33:00,
2013-05-11 18:34:00,85.1,53.6,29.96,NNW,330,0.0,2.0,34,0.00,,---,0.00,137.00,VWS V14.01,2013-05-12 01:34:00,
2013-05-11 18:35:00,85.1,52.0,29.96,NNW,330,0.0,2.0,32,0.00,,---,0.00,160.00,VWS V14.01,2013-05-12 01:35:00,
2013-05-11 18:37:00,85.1,52.8,29.96,NW,310,0.0,2.0,33,0.00,,---,0.00,174.00,VWS V14.01,2013-05-12 01:37:00,
2013-05-11 18:38:00,85.0,52.7,29.96,NW,311,0.0,2.0,33,0.00,,---,0.00,171.00,VWS V14.01,2013-05-12 01:38:00,
2013-05-11 18:39:00,85.0,52.7,29.96,NW,310,0.0,2.0,33,0.00,,---,0.00,171.00,VWS V14.01,2013-05-12 01:39:00,
2013-05-11 18:40:00,85.0,52.7,29.96,NW,310,0.0,2.0,33,0.00,,---,0.00,158.00,VWS V14.01,2013-05-12 01:40:00,
2013-05-11 18:42:00,85.0,51.9,29.96,NNW,343,0.0,6.0,32,0.00,,---,0.00,162.00,VWS V14.01,2013-05-12 01:42:00,
2013-05-11 18:43:00,85.0,52.7,29.96,NNW,343,0.0,6.0,33,0.00,,---,0.00,171.00,VWS V14.01,2013-05-12 01:43:00,
2013-05-11 18:44:00,85.0,52.7,29.96,NNW,343,0.0,6.0,33,0.00,,---,0.00,179.00,VWS V14.01,2013-05-12 01:44:00,
2013-05-11 18:45:00,85.1,53.6,29.96,NNW,343,0.0,6.0,34,0.00,,---,0.00,193.00,VWS V14.01,2013-05-12 01:45:00,
2013-05-11 18:47:00,85.2,52.9,29.96,North,11,0.0,1.0,33,0.00,,---,0.00,239.00,VWS V14.01,2013-05-12 01:47:00,
2013-05-11 18:48:00,85.2,52.0,29.96,North,11,0.0,1.0,32,0.00,,---,0.00,209.00,VWS V14.01,2013-05-12 01:48:00,
2013-05-11 18:49:00,85.2,52.0,29.96,NNE,28,0.0,2.0,32,0.00,,---,0.00,200.00,VWS V14.01,2013-05-12 01:49:00,
2013-05-11 18:50:00,85.2,51.2,29.96,NNE,28,0.0,2.0,31,0.00,,---,0.00,183.00,VWS V14.01,2013-05-12 01:50:00,
2013-05-11 18:53:00,85.3,52.1,29.96,NNE,26,0.0,2.0,32,0.00,,---,0.00,172.00,VWS V14.01,2013-05-12 01:53:00,
2013-05-11 18:54:00,85.3,52.1,29.96,NNE,26,0.0,2.0,32,0.00,,---,0.00,165.00,VWS V14.01,2013-05-12 01:54:00,
2013-05-11 18:55:00,85.3,53.0,29.96,NNE,26,0.0,2.0,33,0.00,,---,0.00,158.00,VWS V14.01,2013-05-12 01:55:00,
2013-05-11 18:58:00,85.4,51.4,29.96,NNE,26,0.0,2.0,31,0.00,,---,0.00,165.00,VWS V14.01,2013-05-12 01:58:00,
2013-05-11 18:59:00,85.4,53.0,29.96,NNE,26,0.0,2.0,33,0.00,,---,0.00,197.00,VWS V14.01,2013-05-12 01:59:00,
2013-05-11 19:00:00,85.4,53.0,29.96,NNE,17,3.0,4.0,33,0.00,,---,0.00,234.00,VWS V14.01,2013-05-12 02:00:00,
2013-05-11 19:03:00,85.4,53.0,29.96,NNW,336,0.0,4.0,33,0.00,,---,0.00,264.00,VWS V14.01,2013-05-12 02:03:00,
2013-05-11 19:04:00,85.4,53.0,29.96,NNW,336,1.0,4.0,33,0.00,,---,0.00,264.00,VWS V14.01,2013-05-12 02:04:00,
2013-05-11 19:05:00,85.5,51.4,29.96,North,5,0.0,4.0,31,0.00,,---,0.00,246.00,VWS V14.01,2013-05-12 02:05:00,
2013-05-11 19:08:00,85.6,51.5,29.96,NNW,346,0.0,4.0,31,0.00,,---,0.00,216.00,VWS V14.01,2013-05-12 02:08:00,
2013-05-11 19:09:00,85.6,52.4,29.96,NNW,346,0.0,4.0,32,0.00,,---,0.00,216.00,VWS V14.01,2013-05-12 02:09:00,
2013-05-11 19:10:00,85.6,53.2,29.96,WNW,295,0.0,4.0,33,0.00,,---,0.00,207.00,VWS V14.01,2013-05-12 02:10:00,
2013-05-11 19:13:00,85.7,51.6,29.96,WNW,296,0.0,4.0,31,0.00,,---,0.00,192.00,VWS V14.01,2013-05-12 02:13:00,
2013-05-11 19:14:00,85.7,51.6,29.96,WNW,296,0.0,4.0,31,0.00,,---,0.00,192.00,VWS V14.01,2013-05-12 02:14:00,
2013-05-11 19:15:00,85.7,50.7,29.96,WNW,296,0.0,0.0,30,0.00,,---,0.00,162.00,VWS V14.01,2013-05-12 02:15:00,
2013-05-11 19:19:00,85.5,50.6,29.96,North,5,0.0,2.0,30,0.00,,---,0.00,91.00,VWS V14.01,2013-05-12 02:19:00,
2013-05-11 19:20:00,85.4,50.5,29.96,North,11,0.0,2.0,30,0.00,,---,0.00,102.00,VWS V14.01,2013-05-12 02:20:00,
2013-05-11 19:24:00,85.2,49.4,29.96,West,275,0.0,2.0,29,0.00,,---,0.00,171.00,VWS V14.01,2013-05-12 02:24:00,
2013-05-11 19:25:00,85.2,50.3,29.96,West,275,0.0,2.0,30,0.00,,---,0.00,165.00,VWS V14.01,2013-05-12 02:25:00,
2013-05-11 19:29:00,85.0,50.1,29.96,WSW,257,1.0,3.0,30,0.00,,---,0.00,93.00,VWS V14.01,2013-05-12 02:29:00,
2013-05-11 19:30:00,84.9,49.1,29.96,NE,37,0.0,0.0,29,0.00,,---,0.00,84.00,VWS V14.01,2013-05-12 02:30:00,
2013-05-11 19:31:00,84.8,50.8,29.96,NE,37,0.0,0.0,31,0.00,,---,0.00,93.00,VWS V14.01,2013-05-12 02:31:00,
2013-05-11 19:34:00,84.5,50.6,29.97,NE,37,0.0,0.0,31,0.00,,---,0.00,60.00,VWS V14.01,2013-05-12 02:34:00,
2013-05-11 19:35:00,84.4,49.6,29.97,NE,37,0.0,1.0,30,0.00,,---,0.00,56.00,VWS V14.01,2013-05-12 02:35:00,
2013-05-11 19:36:00,84.2,49.4,29.97,NE,37,0.0,1.0,30,0.00,,---,0.00,54.00,VWS V14.01,2013-05-12 02:36:00,
2013-05-11 19:39:00,83.8,50.0,29.97,NNE,32,0.0,1.0,31,0.00,,---,0.00,47.00,VWS V14.01,2013-05-12 02:39:00,
2013-05-11 19:40:00,83.7,49.0,29.97,NNE,32,0.0,1.0,30,0.00,,---,0.00,46.00,VWS V14.01,2013-05-12 02:40:00,
2013-05-11 19:41:00,83.5,48.8,29.97,North,11,0.0,3.0,30,0.00,,---,0.00,44.00,VWS V14.01,2013-05-12 02:41:00,
2013-05-11 19:44:00,82.9,50.0,29.97,NNE,29,0.0,3.0,32,0.00,,---,0.00,42.00,VWS V14.01,2013-05-12 02:44:00,
2013-05-11 19:45:00,82.7,48.1,29.97,NNE,29,0.0,0.0,30,0.00,,---,0.00,40.00,VWS V14.01,2013-05-12 02:45:00,
2013-05-11 19:46:00,82.6,48.1,29.97,NNE,22,2.0,3.0,30,0.00,,---,0.00,39.00,VWS V14.01,2013-05-12 02:46:00,
2013-05-11 19:47:00,82.5,48.8,29.97,NNE,19,0.0,3.0,31,0.00,,---,0.00,39.00,VWS V14.01,2013-05-12 02:47:00,
2013-05-11 19:49:00,82.2,49.4,29.97,West,275,0.0,3.0,32,0.00,,---,0.00,37.00,VWS V14.01,2013-05-12 02:49:00,
2013-05-11 19:50:00,82.1,48.5,29.97,West,275,0.0,3.0,31,0.00,,---,0.00,35.00,VWS V14.01,2013-05-12 02:50:00,
2013-05-11 19:51:00,82.0,49.3,29.97,West,275,0.0,3.0,32,0.00,,---,0.00,35.00,VWS V14.01,2013-05-12 02:51:00,
2013-05-11 19:52:00,82.0,49.3,29.97,West,275,0.0,3.0,32,0.00,,---,0.00,35.00,VWS V14.01,2013-05-12 02:52:00,
2013-05-11 19:54:00,81.7,48.2,29.97,West,275,0.0,3.0,31,0.00,,---,0.00,32.00,VWS V14.01,2013-05-12 02:54:00,
2013-05-11 19:55:00,81.6,48.1,29.97,West,275,0.0,3.0,31,0.00,,---,0.00,30.00,VWS V14.01,2013-05-12 02:55:00,
2013-05-11 19:56:00,81.5,47.1,29.97,NW,321,0.0,3.0,30,0.00,,---,0.00,28.00,VWS V14.01,2013-05-12 02:56:00,
2013-05-11 19:57:00,81.4,46.1,29.97,NW,321,0.0,3.0,29,0.00,,---,0.00,26.00,VWS V14.01,2013-05-12 02:57:00,
2013-05-11 19:59:00,81.2,48.6,29.97,NW,321,0.0,3.0,32,0.00,,---,0.00,25.00,VWS V14.01,2013-05-12 02:59:00,
2013-05-11 20:00:00,81.2,48.6,29.97,NW,321,0.0,3.0,32,0.00,,---,0.00,25.00,VWS V14.01,2013-05-12 03:00:00,
2013-05-11 20:01:00,81.1,47.6,29.98,NW,321,1.0,1.0,31,0.00,,---,0.00,23.00,VWS V14.01,2013-05-12 03:01:00,
2013-05-11 20:02:00,80.9,47.5,29.98,NW,325,0.0,1.0,31,0.00,,---,0.00,23.00,VWS V14.01,2013-05-12 03:02:00,
2013-05-11 20:04:00,80.7,47.3,29.98,NNW,340,0.0,5.0,31,0.00,,---,0.00,21.00,VWS V14.01,2013-05-12 03:04:00,
2013-05-11 20:05:00,80.6,46.3,29.98,NW,320,1.0,5.0,30,0.00,,---,0.00,19.00,VWS V14.01,2013-05-12 03:05:00,
2013-05-11 20:06:00,80.6,47.2,29.98,NW,320,0.0,5.0,31,0.00,,---,0.00,19.00,VWS V14.01,2013-05-12 03:06:00,
2013-05-11 20:07:00,80.5,48.0,29.98,NW,320,0.0,5.0,32,0.00,,---,0.00,18.00,VWS V14.01,2013-05-12 03:07:00,
2013-05-11 20:09:00,80.3,46.9,29.98,NNE,15,0.0,5.0,31,0.00,,---,0.00,16.00,VWS V14.01,2013-05-12 03:09:00,
2013-05-11 20:10:00,80.3,46.9,29.98,North,5,0.0,5.0,31,0.00,,---,0.00,16.00,VWS V14.01,2013-05-12 03:10:00,
2013-05-11 20:11:00,80.1,47.6,29.98,NNW,345,0.0,5.0,32,0.00,,---,0.00,14.00,VWS V14.01,2013-05-12 03:11:00,
2013-05-11 20:12:00,80.1,47.6,29.98,NNW,345,0.0,5.0,32,0.00,,---,0.00,14.00,VWS V14.01,2013-05-12 03:12:00,
2013-05-11 20:14:00,79.8,46.5,29.98,NNW,337,1.0,5.0,31,0.00,,---,0.00,11.00,VWS V14.01,2013-05-12 03:14:00,
2013-05-11 20:15:00,79.8,46.5,29.98,North,10,3.0,3.0,31,0.00,,---,0.00,11.00,VWS V14.01,2013-05-12 03:15:00,
2013-05-11 20:17:00,79.7,45.6,29.98,NNE,15,0.0,3.0,30,0.00,,---,0.00,9.00,VWS V14.01,2013-05-12 03:17:00,
2013-05-11 20:20:00,79.6,46.3,29.98,NNE,15,1.0,3.0,31,0.00,,---,0.00,5.00,VWS V14.01,2013-05-12 03:20:00,
2013-05-11 20:22:00,79.5,45.4,29.98,NNE,15,0.0,3.0,30,0.00,,---,0.00,5.00,VWS V14.01,2013-05-12 03:22:00,
2013-05-11 20:25:00,79.3,46.1,29.98,NNE,15,0.0,4.0,31,0.00,,---,0.00,0.00,VWS V14.01,2013-05-12 03:25:00,
2013-05-11 20:26:00,79.1,45.9,29.98,NE,38,3.0,4.0,31,0.00,,---,0.00,0.00,VWS V14.01,2013-05-12 03:26:00,
2013-05-11 20:27:00,79.0,45.8,29.99,NE,35,2.0,4.0,31,0.00,,---,0.00,0.00,VWS V14.01,2013-05-12 03:27:00,
2013-05-11 20:28:00,78.9,44.9,29.99,NE,38,0.0,4.0,30,0.00,,---,0.00,0.00,VWS V14.01,2013-05-12 03:28:00,
2013-05-11 20:30:00,78.7,45.6,29.99,NE,38,0.0,1.0,31,0.00,,---,0.00,0.00,VWS V14.01,2013-05-12 03:30:00,
2013-05-11 20:31:00,78.7,46.4,29.99,NE,38,0.0,1.0,32,0.00,,---,0.00,0.00,VWS V14.01,2013-05-12 03:31:00,
2013-05-11 20:32:00,78.6,46.3,29.99,NW,305,0.0,3.0,32,0.00,,---,0.00,0.00,VWS V14.01,2013-05-12 03:32:00,
2013-05-11 20:33:00,78.6,44.6,29.99,NW,311,0.0,3.0,30,0.00,,---,0.00,0.00,VWS V14.01,2013-05-12 03:33:00,
2013-05-11 20:35:00,78.6,47.1,29.99,NW,311,0.0,3.0,33,0.00,,---,0.00,0.00,VWS V14.01,2013-05-12 03:35:00,
2013-05-11 20:36:00,78.6,46.3,29.99,NW,311,0.0,3.0,32,0.00,,---,0.00,0.00,VWS V14.01,2013-05-12 03:36:00,
2013-05-11 20:37:00,78.5,46.2,29.99,NW,311,0.0,3.0,32,0.00,,---,0.00,0.00,VWS V14.01,2013-05-12 03:37:00,
2013-05-11 20:38:00,78.4,46.1,29.99,NW,311,0.0,3.0,32,0.00,,---,0.00,0.00,VWS V14.01,2013-05-12 03:38:00,
2013-05-11 20:40:00,78.3,46.0,29.99,NW,311,0.0,3.0,32,0.00,,---,0.00,0.00,VWS V14.01,2013-05-12 03:40:00,
2013-05-11 20:41:00,78.2,47.6,29.99,NW,311,0.0,3.0,34,0.00,,---,0.00,0.00,VWS V14.01,2013-05-12 03:41:00,
2013-05-11 20:43:00,78.1,47.5,29.99,NW,311,0.0,3.0,34,0.00,,---,0.00,0.00,VWS V14.01,2013-05-12 03:43:00,
2013-05-11 20:44:00,78.0,45.8,30.00,NW,311,0.0,3.0,32,0.00,,---,0.00,0.00,VWS V14.01,2013-05-12 03:44:00,
2013-05-11 20:46:00,77.8,47.2,29.99,North,355,0.0,1.0,34,0.00,,---,0.00,0.00,VWS V14.01,2013-05-12 03:46:00,
2013-05-11 20:47:00,77.6,46.2,30.00,North,355,0.0,1.0,33,0.00,,---,0.00,0.00,VWS V14.01,2013-05-12 03:47:00,
2013-05-11 20:48:00,77.5,46.2,30.00,North,355,0.0,1.0,33,0.00,,---,0.00,0.00,VWS V14.01,2013-05-12 03:48:00,
2013-05-11 20:49:00,77.4,46.9,30.00,North,355,0.0,1.0,34,0.00,,---,0.00,0.00,VWS V14.01,2013-05-12 03:49:00,
2013-05-11 20:51:00,77.3,46.0,30.00,North,355,0.0,1.0,33,0.00,,---,0.00,0.00,VWS V14.01,2013-05-12 03:51:00,
2013-05-11 20:53:00,77.1,46.6,30.00,North,355,0.0,1.0,34,0.00,,---,0.00,0.00,VWS V14.01,2013-05-12 03:53:00,
2013-05-11 20:54:00,77.0,47.3,30.00,North,355,0.0,1.0,35,0.00,,---,0.00,0.00,VWS V14.01,2013-05-12 03:54:00,
2013-05-11 20:56:00,76.9,46.4,30.00,North,355,0.0,1.0,34,0.00,,---,0.00,0.00,VWS V14.01,2013-05-12 03:56:00,
2013-05-11 20:57:00,76.8,47.1,30.00,NNE,22,0.0,1.0,35,0.00,,---,0.00,0.00,VWS V14.01,2013-05-12 03:57:00,
2013-05-11 20:58:00,76.7,46.2,30.00,NNE,22,0.0,1.0,34,0.00,,---,0.00,0.00,VWS V14.01,2013-05-12 03:58:00,
2013-05-11 20:59:00,76.7,46.2,30.00,NNE,22,0.0,1.0,34,0.00,,---,0.00,0.00,VWS V14.01,2013-05-12 03:59:00,
2013-05-11 21:01:00,76.5,50.4,30.00,NNE,19,0.0,0.0,40,0.00,,---,0.00,0.00,VWS V14.01,2013-05-12 04:01:00,
2013-05-11 21:06:00,75.8,51.7,30.01,West,264,0.0,4.0,43,0.00,,---,0.00,0.00,VWS V14.01,2013-05-12 04:06:00,
2013-05-11 21:11:00,75.3,46.5,30.01,West,264,0.0,4.0,36,0.00,,---,0.00,0.00,VWS V14.01,2013-05-12 04:11:00,
2013-05-11 21:16:00,75.1,47.1,30.01,SSW,194,0.0,1.0,37,0.00,,---,0.00,0.00,VWS V14.01,2013-05-12 04:16:00,
2013-05-11 21:21:00,74.5,47.2,30.02,SSE,159,2.0,3.0,38,0.00,,---,0.00,0.00,VWS V14.01,2013-05-12 04:21:00,
2013-05-11 21:22:00,74.4,52.3,30.02,SSE,159,0.0,3.0,46,0.00,,---,0.00,0.00,VWS V14.01,2013-05-12 04:22:00,
2013-05-11 21:26:00,73.6,53.3,30.02,SSE,159,0.0,3.0,49,0.00,,---,0.00,0.00,VWS V14.01,2013-05-12 04:26:00,
2013-05-11 21:27:00,73.4,53.1,30.02,SSE,159,0.0,3.0,49,0.00,,---,0.00,0.00,VWS V14.01,2013-05-12 04:27:00,
2013-05-11 21:31:00,72.7,48.3,30.02,ESE,111,0.0,1.0,42,0.00,,---,0.00,0.00,VWS V14.01,2013-05-12 04:31:00,
2013-05-11 21:32:00,72.8,46.4,30.02,ESE,111,0.0,1.0,39,0.00,,---,0.00,0.00,VWS V14.01,2013-05-12 04:32:00,
2013-05-11 21:36:00,72.6,52.4,30.02,ESE,111,1.0,2.0,49,0.00,,---,0.00,0.00,VWS V14.01,2013-05-12 04:36:00,
2013-05-11 21:37:00,72.6,53.5,30.02,ESE,111,0.0,2.0,51,0.00,,---,0.00,0.00,VWS V14.01,2013-05-12 04:37:00,
2013-05-11 21:41:00,71.0,55.5,30.02,ESE,111,1.0,2.0,58,0.00,,---,0.00,0.00,VWS V14.01,2013-05-12 04:41:00,
2013-05-11 21:42:00,70.9,54.9,30.02,ESE,122,4.0,4.0,57,0.00,,---,0.00,0.00,VWS V14.01,2013-05-12 04:42:00,
2013-05-11 21:47:00,69.9,54.5,30.03,SE,126,0.0,1.0,58,0.00,,---,0.00,0.00,VWS V14.01,2013-05-12 04:47:00,
2013-05-11 21:48:00,69.7,54.8,30.03,SE,126,2.0,2.0,59,0.00,,---,0.00,0.00,VWS V14.01,2013-05-12 04:48:00,
2013-05-11 21:52:00,68.7,53.3,30.03,SE,126,0.0,4.0,58,0.00,,---,0.00,0.00,VWS V14.01,2013-05-12 04:52:00,
2013-05-11 21:53:00,68.6,52.3,30.03,SE,126,0.0,4.0,56,0.00,,---,0.00,0.00,VWS V14.01,2013-05-12 04:53:00,
2013-05-11 21:57:00,68.1,55.0,30.03,South,184,0.0,4.0,63,0.00,,---,0.00,0.00,VWS V14.01,2013-05-12 04:57:00,
2013-05-11 21:58:00,67.9,54.8,30.03,East,100,4.0,4.0,63,0.00,,---,0.00,0.00,VWS V14.01,2013-05-12 04:58:00,
2013-05-11 22:02:00,67.2,54.6,30.04,East,100,0.0,0.0,64,0.00,,---,0.00,0.00,VWS V14.01,2013-05-12 05:02:00,
2013-05-11 22:03:00,67.1,54.5,30.04,East,100,0.0,0.0,64,0.00,,---,0.00,0.00,VWS V14.01,2013-05-12 05:03:00,
2013-05-11 22:04:00,67.1,54.1,30.04,East,100,0.0,0.0,63,0.00,,---,0.00,0.00,VWS V14.01,2013-05-12 05:04:00,
2013-05-11 22:07:00,67.0,54.0,30.04,East,100,0.0,0.0,63,0.00,,---,0.00,0.00,VWS V14.01,2013-05-12 05:07:00,
2013-05-11 22:08:00,67.0,54.0,30.04,East,100,0.0,0.0,63,0.00,,---,0.00,0.00,VWS V14.01,2013-05-12 05:08:00,
2013-05-11 22:09:00,67.0,53.6,30.04,East,100,0.0,1.0,62,0.00,,---,0.00,0.00,VWS V14.01,2013-05-12 05:09:00,
2013-05-11 22:13:00,66.5,55.2,30.04,East,100,0.0,1.0,67,0.00,,---,0.00,0.00,VWS V14.01,2013-05-12 05:13:00,
2013-05-11 22:14:00,66.2,54.9,30.04,East,100,0.0,1.0,67,0.00,,---,0.00,0.00,VWS V14.01,2013-05-12 05:14:00,
2013-05-11 22:18:00,65.5,54.7,30.04,East,100,0.0,1.0,68,0.00,,---,0.00,0.00,VWS V14.01,2013-05-12 05:18:00,
2013-05-11 22:19:00,65.4,55.0,30.04,East,100,0.0,1.0,69,0.00,,---,0.00,0.00,VWS V14.01,2013-05-12 05:19:00,
2013-05-11 22:23:00,65.0,54.6,30.04,East,100,0.0,1.0,69,0.00,,---,0.00,0.00,VWS V14.01,2013-05-12 05:23:00,
2013-05-11 22:24:00,65.0,52.5,30.04,East,100,0.0,1.0,64,0.00,,---,0.00,0.00,VWS V14.01,2013-05-12 05:24:00,
2013-05-11 22:25:00,64.9,53.7,30.04,ESE,108,0.0,1.0,67,0.00,,---,0.00,0.00,VWS V14.01,2013-05-12 05:25:00,
2013-05-11 22:28:00,64.6,55.4,30.04,ESE,122,0.0,1.0,72,0.00,,---,0.00,0.00,VWS V14.01,2013-05-12 05:28:00,
2013-05-11 22:29:00,64.5,55.3,30.04,ESE,121,0.0,1.0,72,0.00,,---,0.00,0.00,VWS V14.01,2013-05-12 05:29:00,
2013-05-11 22:30:00,64.1,54.9,30.04,ESE,121,0.0,0.0,72,0.00,,---,0.00,0.00,VWS V14.01,2013-05-12 05:30:00,
2013-05-11 22:33:00,63.8,54.6,30.04,ESE,121,0.0,1.0,72,0.00,,---,0.00,0.00,VWS V14.01,2013-05-12 05:33:00,
2013-05-11 22:34:00,63.7,54.5,30.04,ESE,122,0.0,1.0,72,0.00,,---,0.00,0.00,VWS V14.01,2013-05-12 05:34:00,
2013-05-11 22:35:00,63.5,54.7,30.04,ESE,122,0.0,1.0,73,0.00,,---,0.00,0.00,VWS V14.01,2013-05-12 05:35:00,
2013-05-11 22:38:00,63.4,53.5,30.04,ESE,122,0.0,1.0,70,0.00,,---,0.00,0.00,VWS V14.01,2013-05-12 05:38:00,
2013-05-11 22:39:00,63.4,54.6,30.05,SE,130,0.0,1.0,73,0.00,,---,0.00,0.00,VWS V14.01,2013-05-12 05:39:00,
2013-05-11 22:41:00,63.4,55.0,30.05,SE,130,0.0,1.0,74,0.00,,---,0.00,0.00,VWS V14.01,2013-05-12 05:41:00,
2013-05-11 22:44:00,63.3,54.9,30.05,SE,130,0.0,1.0,74,0.00,,---,0.00,0.00,VWS V14.01,2013-05-12 05:44:00,
2013-05-11 22:47:00,63.2,54.8,30.05,SE,130,0.0,0.0,74,0.00,,---,0.00,0.00,VWS V14.01,2013-05-12 05:47:00,
2013-05-11 22:49:00,63.1,54.7,30.05,SE,130,0.0,0.0,74,0.00,,---,0.00,0.00,VWS V14.01,2013-05-12 05:49:00,
2013-05-11 22:50:00,63.0,55.0,30.05,SE,130,0.0,0.0,75,0.00,,---,0.00,0.00,VWS V14.01,2013-05-12 05:50:00,
2013-05-11 22:52:00,62.9,54.9,30.05,SE,130,0.0,0.0,75,0.00,,---,0.00,0.00,VWS V14.01,2013-05-12 05:52:00,
2013-05-11 22:54:00,62.8,54.8,30.05,SE,130,0.0,0.0,75,0.00,,---,0.00,0.00,VWS V14.01,2013-05-12 05:54:00,
2013-05-11 22:55:00,62.6,54.6,30.05,SE,130,0.0,0.0,75,0.00,,---,0.00,0.00,VWS V14.01,2013-05-12 05:55:00,
2013-05-11 22:56:00,62.6,54.6,30.05,SE,130,0.0,0.0,75,0.00,,---,0.00,0.00,VWS V14.01,2013-05-12 05:56:00,
2013-05-11 22:58:00,62.5,54.8,30.05,SE,130,0.0,0.0,76,0.00,,---,0.00,0.00,VWS V14.01,2013-05-12 05:58:00,
2013-05-11 22:59:00,62.3,54.3,30.05,SE,130,0.0,0.0,75,0.00,,---,0.00,0.00,VWS V14.01,2013-05-12 05:59:00,
2013-05-11 23:00:00,62.2,54.2,30.05,SE,130,0.0,0.0,75,0.00,,---,0.00,0.00,VWS V14.01,2013-05-12 06:00:00,
2013-05-11 23:01:00,62.3,54.3,30.05,SE,130,0.0,0.0,75,0.00,,---,0.00,0.00,VWS V14.01,2013-05-12 06:01:00,
2013-05-11 23:03:00,62.2,53.5,30.05,SE,130,0.0,0.0,73,0.00,,---,0.00,0.00,VWS V14.01,2013-05-12 06:03:00,
2013-05-11 23:05:00,62.2,54.5,30.05,SE,130,0.0,0.0,76,0.00,,---,0.00,0.00,VWS V14.01,2013-05-12 06:05:00,
2013-05-11 23:06:00,62.2,54.9,30.05,SE,130,0.0,0.0,77,0.00,,---,0.00,0.00,VWS V14.01,2013-05-12 06:06:00,
2013-05-11 23:08:00,62.2,54.5,30.05,SE,131,0.0,1.0,76,0.00,,---,0.00,0.00,VWS V14.01,2013-05-12 06:08:00,
2013-05-11 23:10:00,62.0,54.7,30.05,SE,131,0.0,1.0,77,0.00,,---,0.00,0.00,VWS V14.01,2013-05-12 06:10:00,
2013-05-11 23:11:00,61.9,54.6,30.05,SE,131,0.0,1.0,77,0.00,,---,0.00,0.00,VWS V14.01,2013-05-12 06:11:00,
2013-05-11 23:14:00,61.6,54.7,30.06,SE,131,0.0,1.0,78,0.00,,---,0.00,0.00,VWS V14.01,2013-05-12 06:14:00,
2013-05-11 23:15:00,61.5,54.6,30.06,SE,131,0.0,0.0,78,0.00,,---,0.00,0.00,VWS V14.01,2013-05-12 06:15:00,
2013-05-11 23:16:00,61.4,54.5,30.05,SE,131,0.0,0.0,78,0.00,,---,0.00,0.00,VWS V14.01,2013-05-12 06:16:00,
2013-05-11 23:19:00,61.2,54.6,30.05,SE,131,0.0,0.0,79,0.00,,---,0.00,0.00,VWS V14.01,2013-05-12 06:19:00,
2013-05-11 23:21:00,61.1,54.5,30.06,SE,131,0.0,0.0,79,0.00,,---,0.00,0.00,VWS V14.01,2013-05-12 06:21:00,
2013-05-11 23:22:00,61.1,54.5,30.06,SE,131,0.0,0.0,79,0.00,,---,0.00,0.00,VWS V14.01,2013-05-12 06:22:00,
2013-05-11 23:25:00,60.8,54.6,30.06,SE,131,0.0,1.0,80,0.00,,---,0.00,0.00,VWS V14.01,2013-05-12 06:25:00,
2013-05-11 23:26:00,60.7,54.5,30.06,SE,131,0.0,1.0,80,0.00,,---,0.00,0.00,VWS V14.01,2013-05-12 06:26:00,
2013-05-11 23:27:00,60.5,54.3,30.06,SE,131,0.0,1.0,80,0.00,,---,0.00,0.00,VWS V14.01,2013-05-12 06:27:00,
2013-05-11 23:30:00,60.0,53.8,30.06,SE,131,0.0,0.0,80,0.00,,---,0.00,0.00,VWS V14.01,2013-05-12 06:30:00,
2013-05-11 23:31:00,59.9,53.7,30.06,SE,131,0.0,0.0,80,0.00,,---,0.00,0.00,VWS V14.01,2013-05-12 06:31:00,
2013-05-11 23:32:00,59.9,53.7,30.06,SE,131,0.0,0.0,80,0.00,,---,0.00,0.00,VWS V14.01,2013-05-12 06:32:00,
2013-05-11 23:35:00,59.6,53.4,30.06,SE,131,0.0,0.0,80,0.00,,---,0.00,0.00,VWS V14.01,2013-05-12 06:35:00,
2013-05-11 23:36:00,59.6,53.4,30.06,SE,131,0.0,0.0,80,0.00,,---,0.00,0.00,VWS V14.01,2013-05-12 06:36:00,
2013-05-11 23:37:00,59.6,53.4,30.06,SE,131,0.0,0.0,80,0.00,,---,0.00,0.00,VWS V14.01,2013-05-12 06:37:00,
2013-05-11 23:41:00,59.6,53.1,30.06,SE,131,0.0,0.0,79,0.00,,---,0.00,0.00,VWS V14.01,2013-05-12 06:41:00,
2013-05-11 23:42:00,59.6,52.7,30.06,SE,131,0.0,0.0,78,0.00,,---,0.00,0.00,VWS V14.01,2013-05-12 06:42:00,
2013-05-11 23:46:00,59.6,53.8,30.06,SE,131,0.0,0.0,81,0.00,,---,0.00,0.00,VWS V14.01,2013-05-12 06:46:00,
2013-05-11 23:47:00,59.6,53.8,30.06,SE,131,0.0,0.0,81,0.00,,---,0.00,0.00,VWS V14.01,2013-05-12 06:47:00,
2013-05-11 23:51:00,58.5,53.0,30.07,SE,124,0.0,2.0,82,0.00,,---,0.00,0.00,VWS V14.01,2013-05-12 06:51:00,
2013-05-11 23:52:00,58.4,52.9,30.07,SE,124,0.0,2.0,82,0.00,,---,0.00,0.00,VWS V14.01,2013-05-12 06:52:00,
2013-05-11 23:57:00,58.0,52.5,30.07,SE,124,0.0,2.0,82,0.00,,---,0.00,0.00,VWS V14.01,2013-05-12 06:57:00,